GFSNE_prec_cthk_027.txt.gz
RH
64 56 51 48 44 39 36 34 34 32 28 28 28 28 27 25 25 23 19 19 25 26 28 28 28 30 31 32 34 37 40 44 50 49 46 44 42 46
61 55 54 48 41 36 34 34 31 30 30 29 28 28 28 27 24 23 24 27 26 27 29 31 34 36 39 43 47 50 51 53 55 58 61 61 65 64
60 60 53 42 37 35 31 30 32 31 30 29 29 29 27 24 25 27 28 27 25 29 35 39 43 47 51 54 55 57 58 59 61 63 65 68 68 74
64 56 44 38 34 32 33 32 32 31 32 31 30 26 27 28 29 32 31 30 29 37 44 52 56 58 59 59 60 62 63 64 66 65 66 66 69 69
59 45 39 35 35 34 34 33 32 31 30 29 27 28 28 30 34 35 31 34 41 47 55 59 58 57 61 62 62 65 66 66 68 68 67 67 68 71
46 39 37 36 35 35 34 31 30 29 30 29 27 26 30 36 39 34 37 45 53 61 61 60 61 59 60 60 64 65 67 70 66 63 63 65 64 63
38 37 37 37 35 34 32 31 31 31 29 28 30 32 35 33 36 44 51 59 61 67 65 58 61 59 57 62 67 67 68 65 62 68 68 70 73 77
37 36 37 36 31 29 33 32 31 31 32 33 36 39 34 41 51 60 66 70 66 69 64 57 59 57 59 63 68 71 68 61 66 71 77 79 77 78
37 38 34 29 27 28 30 30 30 31 34 35 36 41 49 59 66 69 73 73 66 62 64 60 54 51 54 59 68 74 66 65 68 76 82 84 86 85
37 32 28 26 27 30 29 30 28 29 31 36 46 58 67 72 74 73 69 62 53 55 64 64 54 49 50 58 68 71 60 67 72 78 81 84 89 91
30 26 24 27 29 30 30 29 30 29 32 53 67 71 71 71 71 68 65 65 59 55 64 63 57 55 51 55 66 73 63 68 72 78 79 81 88 93
24 22 23 29 29 30 33 32 29 33 55 64 63 63 64 64 69 72 71 68 64 55 66 66 60 63 50 57 71 73 64 69 72 76 77 86 94 92
23 22 24 28 30 30 32 31 36 63 63 58 59 61 65 68 69 70 73 76 73 67 73 73 63 64 65 55 71 75 69 69 72 77 85 93 96 97
24 24 24 29 30 28 28 38 63 61 59 60 62 65 68 71 73 75 77 80 82 81 76 80 71 71 65 60 71 76 71 69 74 77 86 91 96 97
26 28 27 23 24 26 35 63 61 60 62 63 64 68 73 77 80 82 80 78 81 82 81 81 78 74 72 67 77 80 74 75 79 84 88 92 96 96
23 21 22 23 24 32 61 60 61 64 66 67 69 73 79 82 83 85 86 83 80 79 82 80 80 77 71 72 87 79 78 78 79 88 90 93 92 93
28 21 21 23 29 58 60 60 64 68 70 74 79 82 83 83 88 91 91 90 89 84 79 80 80 77 74 83 86 80 80 81 88 91 90 90 90 82
22 22 24 29 54 60 60 64 69 72 76 79 82 83 84 87 88 91 93 91 89 87 82 77 73 68 72 89 85 82 85 86 92 93 90 87 81 76
23 25 30 50 60 62 66 70 70 74 78 80 82 86 87 89 90 90 92 92 88 85 81 78 74 75 91 87 81 87 86 90 90 91 92 90 87 88
27 30 47 58 63 67 70 70 74 78 80 82 85 89 91 92 92 92 92 90 85 80 76 76 77 97 96 93 92 88 92 92 94 91 91 92 90 92
29 42 57 66 69 71 73 76 78 78 80 83 87 92 95 96 94 93 90 87 83 79 76 75 95 98 96 96 96 92 94 96 94 91 90 87 89 91
38 55 65 72 74 74 75 77 78 78 80 84 90 95 98 97 96 94 91 85 81 79 77 91 96 95 97 99 95 96 96 96 94 93 94 94 94 88
52 63 74 74 74 74 76 78 76 77 80 86 92 95 97 97 97 95 91 86 81 79 88 96 96 96 97 98 93 93 94 91 95 96 97 97 94 97

GFSNE_prec_cthk_030.txt.gz
RH
70 69 66 63 58 51 47 42 37 34 32 29 28 28 26 25 23 22 21 19 19 20 24 26 26 28 30 31 33 35 36 40 41 44 49 49 49 50
71 70 66 61 56 52 45 37 34 33 30 30 29 28 26 25 22 20 18 19 18 21 21 26 30 33 36 38 40 42 44 47 51 52 55 59 59 61
73 70 67 60 56 47 38 34 30 33 34 31 29 27 27 24 20 20 20 21 22 20 25 32 37 41 43 45 48 52 55 56 56 57 61 62 62 66
73 71 64 58 48 38 33 32 36 35 33 29 27 25 24 22 21 22 23 24 22 23 34 39 45 49 52 55 58 58 59 59 60 63 64 64 64 64
74 67 58 48 38 32 35 36 34 30 27 27 25 24 21 21 23 25 25 24 29 36 41 47 53 53 58 60 62 62 61 61 64 67 66 66 63 58
69 58 48 37 34 38 38 34 30 26 27 28 26 25 26 24 30 31 30 35 39 48 54 57 60 58 57 58 58 58 59 60 68 69 69 64 60 60
57 44 34 36 39 39 35 31 30 31 30 30 29 28 30 32 35 41 45 48 54 60 60 60 57 54 53 52 54 54 58 63 69 72 71 63 64 65
40 33 37 38 35 31 28 28 32 31 30 29 30 31 31 40 50 56 58 56 50 56 54 47 49 46 50 53 54 57 56 56 69 75 71 63 66 68
34 38 38 34 28 25 27 30 29 27 29 32 32 33 44 54 58 57 56 55 53 53 55 48 48 47 50 51 54 56 58 56 64 73 69 66 67 71
38 36 32 27 25 27 29 29 27 25 27 28 36 48 58 58 57 57 57 56 53 52 58 50 50 49 50 51 52 53 56 57 65 74 71 68 68 72
32 27 24 24 26 29 29 27 26 26 26 33 51 59 57 57 60 61 59 59 53 57 69 63 57 54 52 51 53 55 57 61 64 72 69 67 69 72
21 21 21 23 27 29 29 30 30 26 31 51 58 54 54 57 62 66 67 67 67 62 74 66 64 67 55 57 59 59 57 62 63 71 68 64 68 71
25 22 21 21 28 30 30 31 28 36 55 57 53 55 58 61 63 69 77 80 75 75 81 75 68 70 73 59 56 59 59 59 66 71 71 65 67 78
21 20 19 25 29 26 27 26 34 59 58 54 58 61 62 65 72 77 81 81 85 84 83 85 76 76 72 66 57 57 59 63 73 76 69 68 77 88
19 20 21 22 22 23 23 33 57 58 56 60 63 65 69 71 74 75 80 83 86 89 89 85 84 82 78 71 65 60 62 79 80 74 72 79 86 90
19 22 22 21 21 24 29 56 59 58 63 66 67 69 70 72 76 80 79 82 82 84 89 88 86 83 77 74 71 73 85 83 78 79 83 86 90 88
29 22 20 20 22 28 56 59 60 63 65 68 71 72 74 77 83 85 86 85 85 83 80 83 84 82 77 76 82 87 82 81 80 81 86 84 85 79
26 24 23 24 28 56 59 61 65 65 70 72 74 77 79 83 86 90 91 89 84 83 80 77 73 69 71 87 90 85 85 82 85 89 87 80 78 87
24 24 25 27 55 60 65 68 68 71 72 74 77 81 84 88 92 91 91 90 84 80 78 75 75 80 92 88 84 88 83 87 88 85 84 83 79 83
26 27 27 53 62 67 71 70 71 72 73 75 79 84 88 91 93 92 92 89 84 78 77 77 86 98 96 94 91 88 91 89 87 85 83 86 86 85
27 27 51 64 70 72 71 73 73 73 74 76 82 88 92 95 95 94 91 90 86 82 78 88 98 99 98 96 94 92 90 91 92 90 89 88 88 90
28 50 67 74 73 73 74 73 73 75 75 78 83 87 93 94 94 92 90 86 83 80 94 98 97 97 97 97 91 90 89 88 89 88 90 94 92 92
50 69 77 75 75 75 75 72 75 76 77 79 82 87 89 90 89 88 85 83 88 97 98 97 97 97 97 92 92 92 92 86 83 90 96 97 97 97

GFSNE_prec_cthk_033.txt.gz
RH
67 67 69 69 66 64 61 56 51 42 37 35 32 30 28 27 26 24 23 19 18 19 18 20 26 28 28 30 34 38 40 42 43 44 39 45 46 46
69 71 73 72 69 65 61 55 46 41 35 32 31 30 29 25 21 20 18 16 14 13 19 24 26 29 30 32 37 39 42 42 44 46 51 53 53 54
73 75 76 75 71 65 59 52 44 36 34 32 32 30 24 20 17 16 15 15 15 14 19 21 27 33 35 37 40 44 46 48 50 51 55 61 63 63
76 80 80 76 70 62 55 45 37 34 35 34 30 25 22 19 18 18 18 17 17 17 24 31 34 37 43 47 52 54 53 54 58 59 60 59 60 61
85 83 79 73 66 56 45 37 35 38 36 31 26 23 21 18 18 18 20 18 22 27 34 37 42 45 51 54 56 56 58 57 57 59 62 61 62 67
84 81 76 66 56 44 37 38 40 36 30 28 27 24 21 19 21 22 22 27 32 38 42 43 42 42 44 44 46 47 49 54 53 57 60 62 64 68
82 74 64 50 40 37 40 40 35 30 29 30 28 26 24 23 23 26 33 37 38 39 37 37 38 39 39 40 42 44 46 53 57 57 57 59 64 70
70 58 42 35 37 38 35 32 30 30 31 31 30 29 26 24 30 39 44 42 37 42 43 41 42 39 40 42 42 47 52 53 54 56 56 56 59 70
45 35 35 38 37 32 27 26 27 27 30 30 29 27 26 35 44 48 48 48 48 46 48 43 47 45 48 47 48 50 50 53 55 53 54 56 58 67
35 37 36 31 27 24 26 30 30 29 27 27 27 27 38 50 56 53 52 50 50 51 58 52 55 54 54 53 54 54 55 57 58 56 54 55 59 65
37 29 25 23 22 24 29 30 29 27 26 25 25 41 53 58 56 55 56 55 51 56 68 63 58 57 59 56 59 61 62 65 63 58 56 54 58 66
25 22 19 20 22 29 31 31 31 26 23 25 41 54 57 55 60 63 64 65 65 60 71 66 66 71 57 60 63 66 68 71 66 60 56 55 59 67
22 18 16 18 22 31 31 30 26 29 29 42 54 55 55 61 64 70 74 74 69 67 74 76 70 74 76 62 65 66 67 67 65 60 58 56 59 70
17 16 17 23 28 24 22 23 25 31 43 55 53 56 61 65 68 71 74 76 78 76 74 81 76 80 78 70 63 64 66 64 62 59 59 59 67 74
17 22 24 24 22 18 19 24 29 47 57 55 59 62 66 69 70 71 76 78 80 86 85 84 83 82 81 75 68 63 59 62 67 65 64 73 74 70
21 24 24 21 19 19 21 31 53 59 59 63 65 68 69 71 75 79 78 82 80 82 87 85 82 82 77 74 71 68 75 75 73 79 80 77 77 80
30 23 20 19 19 21 34 58 60 64 67 69 70 69 71 75 80 85 86 84 82 81 79 78 78 77 76 78 84 86 85 83 82 83 85 84 84 85
24 21 20 22 22 35 60 62 67 68 69 69 70 72 75 78 81 88 92 88 84 84 78 73 71 69 76 87 90 85 83 82 83 87 88 84 82 87
21 22 23 24 36 63 67 68 68 69 69 70 71 75 78 82 87 89 90 88 83 82 78 75 76 92 90 87 85 88 84 86 88 86 85 85 79 79
23 24 25 41 65 70 70 70 69 70 71 71 75 79 82 84 84 86 87 84 81 77 76 86 96 95 95 93 90 86 89 85 84 84 87 88 87 86
24 27 49 69 71 71 71 70 70 72 72 75 78 84 83 82 82 83 83 84 85 91 95 94 96 97 97 94 88 87 87 92 90 87 88 90 90 91
33 55 72 72 72 72 72 70 72 75 75 76 80 88 93 96 97 97 97 96 97 97 95 94 95 95 94 91 89 87 86 86 92 93 95 95 92 88
59 73 72 71 73 73 70 70 73 76 75 74 78 87 92 95 97 97 98 98 96 95 97 95 94 95 92 91 90 88 88 92 95 95 97 98 97 97

GFSNE_prec_cthk_036.txt.gz
RH
71 76 68 66 66 66 65 64 63 59 55 55 50 43 37 33 31 29 27 25 22 20 19 20 20 21 28 28 28 28 31 30 31 32 33 35 40 41
72 71 68 68 69 69 69 69 66 61 55 50 44 38 34 32 30 29 25 21 18 16 16 20 20 23 26 28 29 30 32 33 34 36 37 42 46 47
76 74 71 72 74 75 75 74 70 62 55 46 39 35 33 31 28 23 20 17 15 14 13 20 20 23 31 32 33 35 37 40 42 44 45 46 47 53
75 73 74 77 81 82 80 76 68 60 50 40 37 35 34 29 24 20 17 15 14 13 15 22 26 29 32 35 39 43 45 45 47 47 49 50 52 53
79 80 88 88 90 83 76 68 60 49 42 40 39 37 31 25 21 18 17 13 14 17 21 25 30 33 38 38 38 40 37 37 38 39 43 50 54 54
92 97 96 90 81 73 66 54 45 42 42 41 35 31 27 22 20 20 17 15 21 25 29 33 35 34 34 35 35 33 33 34 37 39 39 46 49 55
97 91 84 77 68 56 45 40 42 43 38 31 30 28 24 23 21 19 21 25 27 34 35 35 36 35 37 39 39 38 37 37 42 46 46 47 49 51
86 75 67 54 43 36 39 44 39 32 30 29 29 30 25 23 21 23 30 34 35 40 40 37 41 38 41 44 46 45 45 48 46 46 46 45 50 53
67 51 39 35 37 38 33 27 26 26 25 31 31 28 25 22 27 33 40 45 44 42 45 38 44 42 45 48 51 50 51 53 53 52 50 49 51 51
36 35 38 37 30 25 24 25 25 25 28 28 26 22 23 29 39 46 50 48 46 48 54 45 51 47 48 48 53 56 60 59 57 57 54 54 57 56
39 35 29 25 20 22 24 27 31 27 25 22 22 25 35 44 53 54 52 55 52 54 63 55 51 49 48 48 56 66 71 69 65 61 59 58 59 59
28 25 20 17 19 23 30 31 27 21 22 21 24 34 47 54 57 60 62 63 63 58 65 61 57 62 51 50 59 71 74 76 72 66 62 61 65 61
22 18 16 17 23 29 30 25 23 27 28 26 36 49 54 57 61 67 70 70 68 67 74 74 64 67 71 60 59 70 71 72 69 67 67 64 62 62
18 17 19 23 24 24 21 18 24 25 25 41 51 54 58 63 67 70 72 74 76 76 76 83 73 76 75 68 64 65 69 67 65 62 63 62 62 61
20 23 25 25 23 19 18 19 21 31 48 54 57 63 65 66 68 69 73 76 77 84 86 84 79 80 78 72 65 61 62 62 70 67 65 65 66 67
24 25 25 23 20 19 20 23 38 54 58 64 65 64 65 68 71 73 73 77 77 78 86 83 83 81 75 74 75 76 80 79 76 80 80 81 82 80
26 24 21 20 19 20 24 45 59 63 65 66 67 66 68 71 75 76 76 77 79 75 73 80 83 78 76 88 94 90 86 86 85 85 86 85 86 86
22 21 20 20 21 27 56 63 65 66 67 69 68 69 74 78 74 74 75 76 75 74 73 72 72 81 89 88 91 87 84 83 86 91 91 86 86 90
20 19 20 21 37 63 65 65 66 67 70 68 69 74 83 84 83 81 79 77 77 79 84 92 94 95 92 89 88 89 83 85 87 87 88 88 85 87
19 21 28 51 64 65 66 67 66 70 71 69 71 77 85 89 91 92 92 93 93 93 94 96 96 96 95 92 90 86 91 89 88 86 87 88 87 85
26 36 54 63 65 67 68 67 70 72 72 71 74 77 83 88 90 91 92 94 95 95 95 95 97 96 96 94 91 90 90 94 94 91 89 87 86 86
41 56 62 63 66 68 69 68 70 73 73 74 78 79 79 79 84 89 90 91 92 95 96 95 95 96 97 95 93 91 91 93 96 97 97 96 94 91
58 63 63 65 67 69 70 69 70 73 73 75 78 79 78 80 79 81 85 87 91 94 95 94 93 96 97 97 95 94 96 97 95 91 92 96 97 98

GFSNE_prec_cthk_039.txt.gz
RH
76 79 79 89 82 73 78 72 67 65 66 71 71 69 63 57 50 44 37 32 30 28 26 23 22 26 25 24 25 31 30 30 30 29 30 31 33 33
79 80 86 79 79 74 77 77 74 72 69 70 71 66 58 51 45 38 34 32 30 27 24 22 24 24 23 23 28 30 31 30 30 32 33 34 35 38
80 84 93 83 77 77 83 82 81 79 74 69 65 60 52 46 40 33 31 29 26 23 19 16 21 23 25 30 31 33 33 35 35 36 37 38 39 41
87 96 91 86 84 84 88 87 86 81 73 64 62 55 47 40 35 34 32 26 21 17 15 15 22 24 27 29 33 35 35 37 38 38 37 37 38 39
92 90 92 91 93 96 96 91 82 77 70 61 50 42 39 39 35 29 23 19 16 14 15 18 22 24 30 32 35 36 36 34 33 35 37 38 38 39
94 94 93 96 98 94 87 79 71 61 50 44 40 40 37 30 26 23 20 18 16 17 17 22 26 30 32 33 34 32 32 32 34 35 36 36 36 40
98 98 98 95 87 79 70 59 51 44 43 41 36 31 27 25 24 23 21 18 20 22 23 27 32 34 36 37 37 37 35 35 38 42 42 46 45 42
98 93 86 80 69 56 45 38 41 41 35 31 28 27 27 27 25 23 22 27 27 29 33 32 38 37 41 40 40 40 41 42 47 47 48 48 47 46
85 79 68 52 40 36 36 33 28 26 27 29 28 27 27 24 25 25 30 34 37 40 45 35 43 42 46 46 49 49 49 49 51 50 49 49 50 51
66 52 42 37 35 30 25 26 25 25 26 26 26 23 24 25 30 34 39 42 42 44 55 44 50 48 49 49 52 53 55 56 55 56 56 56 57 59
36 35 34 29 23 21 23 26 27 25 25 24 21 22 24 29 39 43 46 48 47 51 63 58 53 52 50 49 54 61 66 65 63 61 61 63 63 63
29 26 24 21 18 25 28 29 27 24 22 21 20 21 31 41 50 54 57 60 62 56 63 64 61 64 53 50 53 65 71 74 72 69 66 66 68 65
23 20 18 19 26 28 28 26 22 23 23 21 23 37 45 52 59 65 66 66 65 65 71 73 66 70 71 60 56 66 70 70 70 68 68 67 65 64
19 20 21 25 25 24 19 16 20 21 18 29 43 50 58 62 63 65 67 69 70 70 71 79 74 76 73 70 67 64 67 67 66 63 63 63 64 65
20 23 24 22 19 16 15 15 16 21 40 50 57 60 62 63 64 67 70 68 66 73 77 77 77 76 76 71 66 64 67 68 74 72 73 79 83 84
21 22 20 18 15 15 16 18 32 51 57 59 61 62 61 64 73 74 71 68 64 64 74 76 75 76 77 83 91 87 85 86 83 84 84 85 86 86
20 15 15 14 15 16 24 48 55 58 60 63 61 61 64 74 80 85 87 85 84 78 76 82 89 93 93 92 90 87 86 85 83 83 86 87 90 90
15 15 15 17 22 38 52 55 57 59 63 63 62 64 68 74 81 85 88 89 89 89 89 91 92 92 90 89 88 85 83 81 83 88 92 88 87 91
16 17 22 30 45 54 56 58 58 61 63 62 64 67 69 71 75 83 86 88 89 90 91 93 93 94 91 89 89 93 83 85 88 89 91 91 89 89
21 27 36 47 54 56 59 60 60 62 64 64 67 72 74 75 76 77 82 85 86 88 91 95 96 96 94 92 90 88 95 91 91 88 89 90 89 87
29 38 49 54 57 59 61 62 62 63 65 66 69 73 76 75 74 78 77 80 85 87 90 92 96 98 97 96 93 90 91 97 97 96 92 91 89 86
40 50 54 57 60 62 64 65 65 66 68 69 71 73 76 75 71 70 73 71 77 84 85 90 94 96 97 97 96 95 94 91 93 96 96 96 94 91
50 55 57 61 64 67 68 68 68 67 68 71 74 74 75 73 67 65 66 70 71 78 85 88 93 97 98 98 98 96 95 94 92 88 91 96 93 89

GFSNE_prec_cthk_042.txt.gz
RH
86 89 87 93 89 86 82 82 85 79 82 80 80 80 74 71 69 63 58 52 46 42 38 36 32 29 32 33 31 30 32 35 36 35 34 34 33 33
85 86 93 85 80 84 80 82 87 83 77 81 86 86 79 73 69 64 58 50 46 41 36 32 29 30 33 31 29 32 33 34 33 32 32 33 33 34
87 85 91 82 80 90 93 93 92 90 87 89 89 83 77 71 66 59 48 39 36 33 29 27 23 27 27 28 30 30 32 32 32 32 33 34 35 37
90 92 89 91 89 83 96 95 98 97 97 88 86 78 70 63 50 41 38 34 33 28 22 17 19 23 24 26 27 29 29 28 31 33 36 36 37 37
96 91 86 95 85 96 99 98 98 96 89 80 72 64 53 45 40 36 34 29 23 19 16 17 20 21 20 26 28 32 32 32 34 35 37 38 38 38
98 96 87 87 95 94 98 97 90 83 75 66 55 47 41 38 34 29 26 23 21 18 16 20 23 25 26 29 30 31 31 31 34 36 37 37 38 40
95 88 87 97 98 97 90 82 74 66 56 48 47 41 32 27 27 28 26 22 22 20 19 23 28 28 31 34 36 36 36 37 38 42 42 42 45 45
88 96 98 95 88 80 72 61 53 48 42 35 29 28 28 28 29 28 26 25 24 26 28 27 34 33 38 39 42 45 45 45 46 49 48 49 51 50
96 96 88 79 69 55 45 39 33 27 27 28 27 28 29 30 29 25 24 26 31 34 39 30 40 39 44 46 52 53 54 53 52 53 52 50 49 50
82 71 57 46 40 35 29 24 24 22 24 26 26 24 23 23 24 27 32 35 37 42 51 42 48 46 48 50 56 59 61 60 58 56 58 55 54 55
52 47 39 31 25 22 20 24 28 27 25 22 18 18 19 21 30 35 40 45 46 51 58 55 52 49 48 50 56 63 68 66 63 59 57 56 56 56
30 26 24 21 18 24 27 26 24 21 18 15 14 16 26 35 44 50 53 54 55 53 60 58 54 58 48 51 57 63 64 67 65 61 59 59 60 61
22 18 18 19 24 25 24 22 18 20 19 16 19 34 43 49 53 55 56 60 63 63 62 63 57 60 63 56 53 58 63 64 65 63 62 61 60 60
18 17 18 21 21 19 16 14 19 17 15 30 42 47 50 53 53 55 65 70 73 74 73 74 68 68 67 63 60 62 67 67 66 63 66 71 76 79
15 16 17 16 13 12 12 13 14 24 42 45 48 51 52 52 54 63 71 75 79 82 83 83 83 85 86 83 81 82 79 80 81 80 82 82 80 82
13 13 13 13 12 12 14 21 38 45 47 50 52 51 52 54 59 64 70 75 77 81 85 86 88 89 89 90 86 80 83 84 83 82 80 81 83 84
13 12 12 12 14 19 31 43 46 47 50 53 53 53 56 59 63 66 67 70 74 76 79 87 91 95 96 92 86 83 80 80 77 79 86 87 89 90
12 13 14 18 25 38 43 45 48 49 52 55 55 57 59 62 63 65 70 72 72 75 78 83 86 89 90 89 90 84 81 79 82 86 89 86 85 88
15 16 21 30 41 44 47 49 51 53 55 57 59 61 62 64 66 64 65 68 66 67 73 79 85 89 86 84 87 95 86 88 88 87 89 89 86 85
18 24 32 42 45 47 51 53 57 58 60 61 63 66 67 67 69 68 63 63 65 65 68 79 85 90 92 89 86 86 96 94 94 91 89 87 86 85
26 34 43 46 49 52 56 59 62 63 63 63 65 68 71 72 72 69 63 64 67 67 68 73 83 92 96 95 91 88 89 96 96 95 94 93 90 86
34 43 48 50 53 58 61 64 66 67 66 66 66 69 73 74 69 65 70 71 60 60 66 70 76 87 96 95 93 93 89 88 95 96 95 94 94 90
39 48 51 55 59 62 65 67 69 69 69 69 70 72 71 68 66 66 75 74 65 53 60 68 74 86 98 98 98 96 92 91 90 89 91 93 93 93

GFSNE_prec_cthk_045.txt.gz
RH
88 90 89 84 82 82 83 84 88 85 84 82 86 83 81 86 86 82 77 69 65 60 54 49 44 40 35 33 34 35 33 31 34 38 39 38 38 37
94 92 93 89 85 89 88 86 89 91 86 80 84 92 93 96 95 88 81 70 63 56 51 46 41 34 35 35 34 33 33 36 37 34 35 35 35 35
94 94 91 87 87 95 92 88 91 94 89 89 86 94 98 96 90 85 76 64 54 48 42 37 32 29 32 30 28 27 29 34 35 34 35 35 35 36
92 89 89 92 96 90 97 91 98 94 96 96 94 97 95 88 80 72 63 55 46 39 36 29 21 20 20 20 25 26 29 30 29 31 33 35 36 37
71 79 96 92 92 92 91 99 98 96 96 96 97 90 83 75 67 55 47 42 38 29 20 18 18 18 19 20 28 29 29 30 32 33 35 36 39 39
82 87 98 98 94 93 98 98 96 91 94 90 83 75 64 55 48 40 32 26 24 20 19 20 21 22 23 25 25 26 27 28 30 34 35 36 37 37
95 95 91 97 98 97 98 96 94 88 80 73 60 50 42 33 28 29 29 26 24 19 19 20 22 24 27 29 30 32 33 34 34 37 41 41 42 44
91 89 93 97 93 96 85 81 76 64 48 44 40 33 29 27 28 26 25 24 22 22 24 27 31 30 32 35 40 42 44 45 46 50 49 49 49 48
97 98 95 93 86 77 65 53 48 40 33 30 27 27 28 25 21 20 21 24 29 32 33 32 39 37 41 43 47 48 49 50 50 53 55 53 53 54
95 87 74 62 54 46 36 26 22 20 22 25 25 22 18 18 21 22 28 35 38 40 42 39 41 41 42 41 44 46 48 50 52 53 57 56 57 59
57 50 45 37 29 22 20 21 22 23 20 17 13 13 15 16 26 35 40 43 42 43 48 48 49 45 40 39 41 46 49 51 53 52 53 53 56 56
32 26 21 17 15 18 22 21 19 15 12 11 11 13 22 35 40 43 44 44 48 51 56 58 60 59 52 50 50 51 52 55 57 57 57 57 57 58
17 15 14 13 19 20 20 18 14 15 13 12 19 34 39 42 44 45 45 49 55 61 65 66 63 66 68 65 69 70 70 70 70 70 71 72 73 73
12 11 12 15 14 13 11 11 11 12 17 33 38 41 43 45 45 47 49 54 59 63 67 71 69 71 72 72 72 75 76 75 72 71 71 74 75 76
12 12 11 11 11 10 11 12 16 30 38 40 43 46 46 47 49 51 54 57 61 67 68 70 72 74 76 77 75 75 70 74 76 74 73 72 75 77
11 11 11 11 11 12 15 25 37 40 42 43 46 48 48 51 53 55 56 55 55 60 64 64 67 73 77 80 80 75 75 75 75 74 73 76 81 87
11 12 12 13 15 21 32 38 41 43 45 46 48 50 51 53 56 58 59 59 56 52 55 61 65 70 76 81 79 79 77 77 74 75 80 79 83 86
13 14 15 18 25 37 39 41 43 46 49 50 51 53 56 58 59 61 63 63 56 53 57 58 62 67 70 78 88 84 82 79 82 87 89 84 80 87
14 16 20 28 38 41 43 45 47 51 54 56 56 58 59 61 63 64 65 60 57 62 59 53 59 67 69 74 84 95 87 86 87 86 89 91 88 87
17 22 29 40 42 44 48 51 55 58 61 62 62 62 62 63 65 65 61 58 62 65 63 55 54 65 71 72 79 84 92 91 90 87 86 87 85 84
23 31 40 44 45 49 53 56 60 63 65 66 66 66 67 67 65 62 59 60 67 67 64 50 51 62 69 72 81 86 90 95 95 93 91 87 81 80
29 36 46 49 52 55 58 60 63 65 67 69 68 68 68 68 68 64 60 63 65 67 60 48 48 61 67 75 82 87 85 87 94 95 96 93 90 86
34 40 49 54 58 60 62 64 66 67 69 71 71 70 70 71 71 68 66 65 67 67 56 49 49 62 66 74 83 93 91 88 89 89 91 94 96 93

GFSNE_prec_cthk_048.txt.gz
RH
89 90 91 92 92 92 91 85 86 83 81 92 90 88 83 88 84 82 78 86 92 91 86 79 70 62 56 51 45 38 35 37 36 35 35 37 41 41
89 91 93 94 91 92 94 90 85 92 89 91 91 91 88 90 92 92 92 89 90 88 86 78 69 60 55 48 40 37 40 38 36 36 37 39 38 37
89 93 94 96 93 91 92 92 88 90 91 95 95 97 97 98 99 96 96 90 86 82 77 72 65 56 47 41 39 40 36 30 29 31 35 35 35 34
72 77 78 82 85 84 89 91 89 95 96 99 98 97 96 97 98 95 87 85 78 68 61 54 49 42 36 30 26 28 25 25 27 29 31 34 34 34
67 68 72 74 75 78 92 96 91 98 98 99 96 94 94 94 87 80 76 68 57 47 38 29 25 22 20 18 19 23 25 26 26 26 26 28 31 34
73 76 76 74 88 82 84 95 98 96 94 97 95 94 89 82 76 64 53 47 43 37 28 25 23 19 20 20 20 19 19 20 21 25 28 29 31 32
75 78 77 79 98 91 96 96 97 97 96 90 85 82 73 59 54 45 37 30 26 23 22 24 26 26 25 22 21 23 25 26 28 29 35 37 39 41
76 81 87 97 98 98 95 92 90 86 77 70 59 51 43 36 32 28 26 24 22 20 26 26 30 28 28 27 28 30 31 31 32 37 38 38 40 43
95 92 87 90 93 91 88 78 66 50 41 38 36 30 25 25 24 18 20 20 23 30 33 31 32 33 34 37 37 34 31 31 33 34 39 41 42 46
93 89 92 84 71 55 40 32 28 23 22 23 23 22 21 20 19 18 21 30 35 37 38 35 40 42 45 48 46 44 40 38 39 41 44 48 48 47
78 62 48 39 31 23 18 17 18 21 17 15 12 11 11 11 13 27 34 38 37 37 40 42 46 49 52 54 54 54 53 51 50 49 49 52 54 54
38 30 24 16 12 16 20 20 19 17 15 11 15 11 13 24 33 35 37 38 39 37 41 43 48 55 52 58 61 62 62 62 63 63 60 61 61 65
16 13 12 12 13 16 18 17 13 11 17 11 14 25 32 35 37 39 40 41 43 45 48 50 50 56 58 56 61 66 69 70 69 68 65 65 65 66
12 12 12 11 10 11 10 10 10 10 13 25 32 35 37 40 41 43 45 48 49 50 52 51 50 55 56 55 56 62 69 72 71 68 67 69 69 68
12 11 11 10 10 10 10 11 13 21 31 34 36 38 41 42 44 47 50 52 52 53 55 54 50 52 56 56 56 61 66 70 73 70 71 72 71 72
13 12 11 11 11 11 13 19 31 35 36 38 40 41 44 46 48 50 52 54 54 57 56 53 56 54 52 54 60 61 67 72 74 74 71 74 77 81
13 12 11 12 13 17 27 34 37 39 41 43 45 47 49 52 55 56 57 58 59 56 52 59 63 58 54 53 56 62 64 72 77 75 79 79 82 87
13 12 13 15 20 32 37 38 41 43 47 50 52 54 56 58 59 61 62 62 59 55 53 62 61 59 51 46 55 60 67 76 81 86 88 85 81 88
13 13 16 22 33 38 40 42 45 50 53 56 59 61 62 63 63 64 64 61 58 56 60 64 64 61 52 47 53 69 68 75 83 87 89 87 84 83
14 16 22 31 39 41 43 47 51 55 58 61 63 65 65 65 65 64 65 66 61 59 61 66 68 60 54 50 52 59 73 77 89 88 88 88 88 85
16 21 28 37 42 44 48 52 55 58 62 65 67 68 68 68 67 68 69 69 67 66 62 64 68 60 52 50 53 55 64 78 94 94 92 92 86 82
19 26 32 41 47 50 55 57 59 62 66 69 70 71 71 69 67 68 69 69 69 69 64 62 65 60 52 53 56 55 56 66 89 96 98 96 91 83
22 28 35 43 50 54 58 61 65 68 71 72 73 74 73 71 69 69 69 70 70 69 64 61 66 61 54 55 60 58 57 64 83 91 95 96 95 92

GFSNE_prec_cthk_051.txt.gz
RH
70 76 76 82 88 97 97 93 95 96 93 86 90 90 91 85 89 90 90 88 90 85 85 91 91 84 75 72 69 65 61 58 59 56 51 47 43 42
76 81 84 84 89 96 99 98 97 96 91 92 96 92 93 92 87 88 94 93 94 95 96 93 87 80 71 68 65 62 57 57 56 53 50 48 48 50
84 83 86 91 96 97 98 96 95 96 98 91 89 92 97 96 93 94 94 96 93 94 89 85 78 70 61 56 53 49 47 47 48 46 45 45 46 44
77 85 87 87 88 90 90 91 90 88 88 83 97 95 98 96 98 97 97 94 87 82 79 73 66 58 50 41 37 33 33 36 36 35 34 35 37 36
71 71 74 82 83 81 82 82 78 84 91 78 82 87 91 94 97 95 95 89 83 75 68 58 45 37 31 29 26 24 25 25 26 26 27 26 26 28
78 75 74 74 77 76 76 77 80 75 88 98 92 98 97 92 87 81 75 71 62 46 38 33 26 24 22 20 19 19 19 19 19 21 24 26 26 27
82 77 76 78 80 78 83 80 80 80 88 92 96 89 82 79 69 59 48 38 30 24 24 20 21 20 18 18 20 21 22 25 27 28 30 30 30 31
82 72 72 79 80 80 78 83 91 97 94 82 71 70 60 46 38 32 23 21 16 15 19 16 20 20 21 23 24 26 29 32 32 34 33 31 31 32
84 83 75 80 84 98 95 89 76 66 56 40 34 33 27 22 21 18 16 15 14 18 25 22 24 25 26 28 31 33 34 35 36 37 39 40 38 39
93 91 89 89 85 74 60 46 33 28 24 20 18 15 17 17 17 16 16 17 25 30 33 27 27 27 27 30 36 38 40 42 43 43 44 46 49 50
81 72 62 51 41 34 26 21 15 17 19 15 12 10 9 9 9 10 22 30 31 31 32 33 32 33 31 30 35 40 44 46 48 50 51 52 55 57
32 28 24 19 15 13 12 16 18 17 16 12 12 13 11 13 22 29 32 32 35 37 39 39 39 39 33 30 33 40 44 46 50 55 59 61 63 63
13 12 12 11 12 12 11 12 15 12 10 16 13 15 24 31 33 34 35 38 40 43 45 47 44 44 44 36 33 39 44 46 49 55 60 64 64 63
13 14 16 12 11 11 10 10 9 9 10 14 24 30 32 35 36 37 38 41 44 47 50 51 49 48 44 43 42 40 42 47 51 54 61 67 66 66
14 14 15 14 13 12 10 10 10 13 24 29 32 35 37 37 38 40 42 45 48 50 53 56 53 49 48 52 49 46 41 40 52 57 62 70 70 68
17 17 16 15 13 11 11 13 22 29 32 34 36 38 40 42 44 46 49 51 53 54 57 56 51 51 55 58 57 50 42 44 48 58 63 71 77 80
19 19 18 15 13 13 17 27 31 34 36 38 40 44 47 49 51 53 55 57 57 58 56 54 53 57 59 60 57 51 43 43 52 58 63 72 80 82
21 20 16 14 14 20 29 33 35 37 40 43 47 50 53 55 57 58 59 60 60 59 60 59 58 59 59 60 63 50 43 44 52 58 63 73 81 84
21 17 13 14 20 30 35 37 39 42 46 49 51 54 56 59 60 61 62 63 62 64 65 65 66 65 60 58 60 56 47 51 54 56 63 74 84 84
18 14 14 19 26 35 39 42 44 46 50 53 56 59 62 63 64 65 66 65 64 65 64 69 72 71 66 63 59 52 52 55 59 55 58 66 85 88
17 15 17 23 29 37 42 46 49 52 55 58 62 64 66 67 68 70 70 69 67 67 65 65 70 71 68 64 61 56 53 59 63 61 60 69 83 84
18 16 19 25 31 39 45 49 53 57 60 65 69 72 73 74 74 74 73 72 69 68 68 68 68 68 65 66 63 57 53 54 61 62 67 84 94 84
18 17 20 26 33 39 46 52 56 61 65 69 74 76 79 79 79 79 81 80 77 75 75 72 70 66 63 68 68 59 56 53 55 55 61 84 96 94

GFSNE_prec_cthk_054.txt.gz
RH
85 89 90 82 78 88 87 85 87 89 91 94 98 97 96 94 83 94 96 95 88 88 95 90 89 89 93 92 88 82 72 68 68 65 65 64 61 59
83 91 95 92 87 89 94 93 93 92 90 93 98 97 96 91 98 97 96 92 96 94 96 96 96 95 92 82 77 71 65 59 57 61 59 54 52 53
77 84 96 99 98 98 99 95 94 94 92 90 98 98 95 97 97 97 90 94 93 95 97 96 94 88 83 75 65 62 57 57 54 50 47 44 44 44
84 84 84 89 95 98 98 99 97 98 97 99 97 100 90 86 81 87 83 84 83 88 90 84 83 81 71 64 57 50 46 43 43 43 39 38 40 43
91 92 90 89 88 87 89 93 89 83 84 80 78 73 71 71 79 89 94 97 95 90 81 71 61 53 50 42 37 34 34 32 31 30 29 28 27 26
93 93 92 95 91 86 82 80 79 78 76 74 71 78 84 79 85 85 83 80 77 63 51 43 36 31 21 19 23 21 20 20 23 24 24 24 24 25
90 95 92 92 90 89 83 81 79 78 80 91 85 83 85 85 81 71 60 49 34 28 22 14 14 14 14 16 17 18 19 23 26 27 28 29 29 30
92 93 94 96 92 86 86 90 85 79 89 85 83 72 62 52 41 34 27 18 14 11 11 9 16 15 18 20 22 23 24 26 31 33 34 35 35 36
98 98 89 91 93 86 79 84 82 76 66 53 43 31 27 27 19 16 15 13 10 10 15 15 21 22 23 23 24 24 26 27 30 32 34 38 41 43
98 97 94 93 86 79 71 57 44 33 27 21 17 14 13 13 13 12 11 10 10 20 25 22 24 24 26 27 27 27 28 29 30 32 37 44 47 49
48 46 44 38 33 27 21 16 15 15 16 14 12 11 10 10 10 10 10 17 24 26 27 27 29 30 31 32 31 30 31 31 32 31 34 44 49 51
16 14 12 11 11 11 11 12 15 16 15 14 12 11 10 10 12 20 26 28 29 30 32 34 36 37 34 37 37 37 38 36 31 32 36 41 45 51
17 14 12 13 13 13 13 13 14 13 11 10 11 11 14 21 26 29 30 32 33 35 37 41 41 42 44 40 39 39 44 44 38 31 34 43 45 51
18 18 17 16 16 15 15 14 12 11 10 11 15 23 26 28 30 32 34 36 38 41 44 47 48 49 49 45 40 41 45 46 41 33 32 39 48 53
21 19 18 18 18 17 16 13 12 11 15 24 27 29 32 33 35 37 40 43 46 49 52 54 55 55 53 48 46 46 47 47 44 37 35 39 46 53
25 24 21 20 19 16 14 13 15 24 27 28 31 34 36 39 42 44 45 48 51 53 56 58 60 57 54 55 54 51 52 54 45 37 37 40 48 54
26 23 21 20 17 15 16 21 27 29 30 33 36 38 42 45 48 50 52 54 56 57 59 62 61 63 62 61 59 56 52 53 51 42 41 43 48 53
26 24 22 19 17 17 22 29 31 32 34 37 40 44 48 51 54 56 58 60 60 61 62 63 65 66 64 62 66 60 57 55 53 47 45 45 44 51
27 25 22 19 18 20 27 33 34 36 40 43 46 50 54 57 59 61 62 64 65 65 66 67 68 68 64 60 63 69 61 58 55 50 48 48 45 46
27 25 21 20 19 23 29 34 37 41 45 49 52 56 60 64 67 69 70 70 69 70 70 73 73 71 70 66 60 60 64 59 60 53 50 50 49 47
28 25 23 21 20 24 29 35 41 46 50 52 55 60 65 69 72 75 77 80 79 77 76 77 77 77 75 71 63 58 53 62 62 58 56 55 51 49
27 26 24 22 20 23 29 34 41 48 53 56 60 64 70 75 77 78 80 82 83 82 79 80 81 79 77 75 65 57 53 56 60 60 60 61 56 49
27 27 23 21 21 22 28 34 40 49 56 61 65 70 76 80 83 84 85 87 85 83 82 78 79 79 71 67 65 60 57 57 59 58 56 58 55 50

GFSNE_prec_cthk_057.txt.gz
RH
51 55 64 70 88 96 95 97 98 96 87 91 93 91 89 87 93 97 98 97 98 98 98 98 97 96 97 92 90 90 88 84 82 74 71 70 67 61
48 56 62 68 76 88 97 96 96 94 90 84 88 93 90 94 95 98 98 98 98 99 98 95 95 94 93 89 90 87 85 80 75 71 69 67 61 57
58 65 74 78 81 82 94 92 88 97 98 92 89 95 98 95 99 98 95 93 95 91 88 83 88 90 85 87 85 80 76 72 65 62 61 58 53 49
67 73 83 87 88 86 84 88 92 95 97 98 97 96 99 97 96 95 87 85 83 83 83 82 89 89 88 88 84 71 62 57 53 53 51 49 46 45
72 76 82 86 89 90 86 86 91 95 94 97 95 97 95 91 88 84 80 81 85 85 87 89 86 83 73 58 47 40 40 38 38 36 32 29 29 28
73 78 75 78 83 85 87 87 85 86 87 88 85 81 78 79 80 83 87 84 82 75 71 61 47 31 20 19 20 19 17 16 17 21 22 23 22 22
74 79 78 78 85 86 88 90 90 88 90 84 85 81 83 87 88 83 67 57 45 35 25 17 12 11 11 13 13 15 16 17 19 23 25 25 26 27
77 82 86 86 86 87 90 92 90 86 82 90 87 84 77 66 51 36 30 28 19 14 10 8 11 12 15 17 19 21 22 22 22 24 26 27 29 30
80 83 86 90 93 98 97 93 91 87 78 58 43 33 26 20 16 15 16 15 13 10 10 10 16 19 22 23 24 24 24 24 23 23 24 26 28 29
48 53 55 58 57 47 40 33 25 20 16 13 11 12 13 14 15 14 13 11 9 9 17 21 23 24 26 28 28 28 27 27 28 28 27 27 28 31
15 13 12 11 11 10 10 11 12 13 14 15 17 16 14 13 12 11 10 11 18 24 26 26 27 28 31 32 33 34 32 31 35 36 34 31 30 33
16 16 15 12 12 13 13 15 17 18 19 19 16 13 11 11 12 14 21 24 27 28 30 31 32 32 33 35 38 39 36 35 41 41 39 36 31 29
20 20 20 19 18 17 17 17 18 18 15 13 11 11 12 18 24 26 28 29 31 33 34 36 36 38 41 41 44 42 39 40 42 43 42 38 35 32
24 25 25 24 23 21 19 19 17 15 14 13 13 19 25 28 28 29 31 33 35 38 40 43 45 47 49 49 46 44 43 44 44 44 43 41 39 35
27 27 27 25 22 21 20 18 16 15 16 21 28 29 29 29 31 33 36 38 41 43 45 48 50 52 53 53 49 49 49 50 49 46 45 45 42 36
28 27 26 25 23 22 21 19 19 22 29 30 29 29 31 33 36 38 41 44 46 47 49 51 53 54 55 55 55 52 53 54 55 51 48 47 45 40
29 28 27 26 24 23 22 22 26 32 33 32 31 33 36 38 41 43 47 49 51 52 54 55 56 58 59 57 56 55 53 54 56 53 50 48 48 44
29 29 28 26 25 23 22 25 33 36 35 34 35 37 40 43 45 49 53 56 57 58 60 61 60 60 61 61 62 55 57 57 57 54 51 50 48 50
30 29 28 27 25 24 25 28 34 38 37 38 39 42 46 50 52 56 61 65 67 68 69 70 70 69 63 62 64 68 64 62 60 55 50 51 50 49
31 28 27 27 25 24 25 28 32 37 41 42 46 50 55 57 60 65 69 72 73 75 76 78 79 78 75 70 66 69 73 66 63 54 51 50 50 50
31 30 29 28 27 25 24 27 32 36 38 43 48 54 60 63 67 72 75 78 79 80 79 83 85 84 80 76 69 66 68 66 60 58 54 53 49 50
34 32 31 30 29 26 26 27 30 32 36 42 48 56 64 71 74 80 85 85 87 87 86 86 88 87 83 78 70 65 62 62 62 61 58 56 55 51
36 34 34 32 32 30 29 29 30 32 38 43 51 59 68 79 89 92 93 94 94 94 93 90 88 86 80 78 75 72 68 61 58 56 53 57 55 53

GFSNE_prec_cthk_060.txt.gz
RH
36 37 43 43 50 55 63 71 77 86 82 85 98 97 97 98 97 95 96 98 96 98 98 98 97 98 98 98 97 97 97 94 94 91 87 85 82 80
32 38 41 48 52 64 67 81 88 94 91 81 93 96 98 98 95 98 97 93 98 98 96 94 94 96 97 94 91 92 89 86 82 82 79 78 74 74
39 43 47 50 57 61 69 80 87 90 88 89 90 91 97 98 93 98 98 99 95 94 95 96 89 87 87 88 87 85 83 81 83 82 79 73 66 62
43 49 55 58 60 62 69 77 85 89 87 89 92 93 97 90 96 98 94 96 95 92 92 87 87 87 85 85 83 83 83 81 74 67 62 58 56 50
51 56 60 61 61 62 69 74 79 85 87 85 83 90 87 94 91 91 90 93 93 88 89 85 79 83 81 75 73 67 59 50 42 38 38 36 34 33
55 58 60 63 67 67 70 75 80 84 87 91 89 87 88 88 89 90 92 89 86 82 77 71 68 59 48 37 25 16 13 13 15 16 19 22 22 22
58 60 65 68 71 74 77 81 85 84 83 88 91 84 84 85 90 90 86 82 73 57 39 26 19 16 11 9 9 11 12 14 15 16 20 24 25 25
60 63 67 70 72 76 80 83 87 88 92 93 93 90 81 68 51 36 29 22 17 15 13 11 12 9 10 11 12 14 17 19 20 21 22 24 26 25
35 37 40 43 49 58 53 50 48 39 32 27 23 21 21 19 16 16 15 15 15 15 11 8 10 13 15 19 22 23 24 24 24 23 22 21 23 26
14 14 13 12 11 11 11 11 11 12 12 13 13 15 15 16 17 16 16 15 13 11 11 13 19 22 23 24 24 26 28 28 27 26 26 27 27 26
14 15 15 15 15 14 13 13 13 15 17 18 19 20 19 18 19 15 13 13 12 17 23 25 24 25 26 28 29 30 31 32 31 29 31 33 33 32
19 20 20 21 21 21 20 19 18 18 19 20 20 18 14 14 15 15 16 20 25 26 27 27 27 28 29 31 32 34 36 37 35 35 36 37 37 35
25 25 24 24 24 24 23 22 21 20 20 18 16 15 16 17 20 24 26 27 28 30 31 31 31 34 36 38 40 42 43 41 40 40 40 40 39 38
29 29 28 28 27 26 24 22 21 20 19 17 17 18 23 28 29 29 29 30 31 31 34 37 40 42 44 45 46 47 47 45 46 47 46 45 44 43
31 30 29 28 27 26 25 23 22 21 21 21 25 29 31 32 32 32 33 32 34 37 39 42 44 46 47 49 49 49 49 49 51 51 52 51 51 49
34 32 30 28 27 27 25 23 23 23 25 30 33 33 34 33 34 35 34 36 39 43 46 50 51 51 51 52 52 53 53 52 53 53 52 53 54 52
34 32 30 29 29 26 24 24 25 28 33 36 36 36 36 37 38 38 39 42 46 49 52 56 57 57 57 57 57 56 55 56 57 55 52 51 52 51
37 34 32 31 29 27 25 25 26 29 35 37 38 40 40 40 39 42 46 50 53 57 61 66 67 66 64 63 63 62 62 59 60 59 60 57 52 52
39 36 34 33 32 30 28 28 28 30 35 41 43 43 44 42 47 52 56 61 64 66 70 75 77 76 73 70 71 75 71 72 68 65 65 63 55 51
45 40 38 36 34 32 32 31 29 31 34 38 40 43 43 46 52 58 63 68 74 76 78 84 85 83 80 77 73 78 81 74 71 64 61 58 55 52
49 43 42 41 40 38 37 34 32 32 33 33 35 36 41 45 52 60 67 77 84 88 87 92 95 93 89 85 78 77 78 78 70 65 63 64 60 54
53 48 48 47 46 45 43 39 36 35 34 34 34 34 40 45 51 58 68 77 87 95 95 95 96 96 95 90 82 77 76 78 77 72 70 68 62 54
59 54 54 53 51 50 47 44 44 42 39 38 37 42 48 55 62 67 72 78 82 87 91 94 96 97 95 93 87 79 75 74 74 69 64 64 59 57

GFSNE_prec_cthk_063.txt.gz
RH
36 38 38 35 34 39 46 57 59 61 59 56 69 77 82 79 74 85 94 97 98 98 98 98 99 96 96 98 98 98 97 98 98 98 98 98 97 95
33 34 35 34 39 44 48 52 51 55 63 65 73 80 86 86 82 87 94 98 98 98 99 98 98 96 98 93 90 92 95 94 92 92 94 92 92 88
33 33 36 40 43 49 52 52 54 57 60 67 74 83 88 95 94 92 95 97 98 98 95 96 94 93 95 92 91 87 88 90 89 89 89 89 87 85
35 40 44 48 52 54 55 55 56 59 63 67 73 80 82 90 90 89 89 90 89 94 97 92 88 88 90 90 88 87 84 83 84 86 86 82 77 70
41 46 48 51 54 56 57 58 58 62 68 74 77 79 87 88 86 82 86 83 82 87 87 86 85 86 86 80 77 78 76 72 67 62 55 50 45 41
48 50 52 53 56 58 58 59 61 65 70 76 77 81 85 85 81 84 84 86 85 88 86 85 79 71 66 62 56 47 39 30 22 17 14 14 16 20
50 51 51 53 56 57 57 60 61 65 69 70 74 81 84 85 85 80 71 69 66 61 54 48 44 40 32 24 17 12 10 10 10 11 13 15 22 23
37 36 34 35 35 39 48 45 42 43 43 44 43 43 43 42 40 36 33 30 27 21 17 14 12 10 9 8 8 9 10 11 13 14 17 21 22 23
17 18 19 19 19 18 16 14 14 14 13 13 14 15 15 15 16 15 16 16 15 13 11 9 9 8 9 10 11 13 16 19 20 21 22 22 23 24
14 14 14 15 15 14 14 15 15 15 15 15 16 16 17 16 16 15 14 13 13 13 13 11 11 14 17 19 20 21 22 24 25 25 25 25 25 25
19 19 19 20 21 20 20 20 21 21 22 23 22 22 22 21 20 18 17 16 15 15 17 19 21 22 23 22 23 24 26 27 29 30 30 29 28 29
24 25 25 25 25 25 25 24 24 23 22 22 23 22 21 19 19 20 19 19 22 24 26 27 27 27 25 24 27 30 32 33 35 35 34 34 35 36
29 29 29 28 28 28 27 26 25 23 23 22 21 20 20 20 21 23 27 30 31 31 32 32 31 32 31 30 32 36 37 38 39 40 39 39 39 40
35 35 33 32 31 29 27 26 26 25 24 22 21 21 22 26 30 32 33 32 33 34 36 37 36 36 38 37 38 41 42 42 42 42 42 43 44 45
42 39 36 34 32 29 29 27 26 25 23 23 24 27 31 34 35 35 36 37 37 38 38 38 39 42 45 45 46 47 46 45 45 46 45 47 48 48
46 42 39 37 33 31 30 28 27 27 27 28 31 35 36 37 38 39 40 40 39 40 42 44 47 49 51 52 54 54 55 53 53 53 49 49 51 52
50 47 44 40 37 35 34 32 31 31 30 32 37 39 40 42 43 43 42 42 40 43 48 52 54 57 58 58 59 62 64 63 62 61 57 53 54 55
54 52 48 45 42 39 38 36 35 35 35 36 39 42 44 45 45 45 45 44 45 52 57 63 67 67 67 66 68 71 74 75 75 71 69 64 61 64
57 53 51 52 48 44 42 42 41 39 38 38 39 40 43 46 45 44 45 47 50 54 63 70 76 79 77 74 79 85 82 84 79 77 75 70 63 63
59 56 52 53 51 48 47 47 46 43 42 41 38 36 38 39 40 40 39 43 49 53 60 72 82 87 90 88 82 86 93 87 86 78 76 70 65 63
58 57 55 57 55 51 52 53 50 48 46 43 40 38 41 38 38 38 41 46 51 56 62 70 80 86 88 91 87 86 89 94 89 82 78 75 71 66
61 62 63 61 59 56 57 56 53 52 50 46 44 47 45 44 43 45 50 56 60 64 66 70 76 80 85 88 85 85 85 89 91 87 82 79 73 66
67 70 66 64 61 61 62 59 58 55 53 52 55 55 53 53 54 56 59 60 62 64 68 68 73 78 78 82 82 79 80 82 83 81 78 82 77 71

GFSNE_prec_cthk_066.txt.gz
RH
36 36 38 38 40 40 38 37 41 45 48 48 47 49 51 56 61 72 79 84 90 82 87 91 97 98 98 98 98 98 95 95 97 97 97 97 98 98
34 36 36 37 36 37 40 42 46 49 49 48 51 52 56 58 65 75 88 92 92 87 95 98 98 98 98 98 98 98 95 94 96 97 97 97 97 97
32 33 36 37 38 43 47 48 49 49 48 50 52 56 61 63 69 76 89 90 94 97 98 98 98 98 98 98 98 98 97 96 94 93 91 95 95 95
37 40 39 39 44 48 49 50 50 50 48 50 54 58 61 68 69 75 85 82 87 90 91 95 96 97 94 91 88 89 90 89 92 91 87 88 90 88
44 43 44 45 47 48 48 50 51 51 51 51 53 57 61 65 70 72 75 76 82 84 84 85 90 88 87 90 88 88 86 82 81 81 81 75 67 64
48 50 49 48 49 49 50 49 50 48 50 51 51 50 52 54 57 62 68 68 66 65 68 67 67 68 68 66 63 59 56 54 49 40 33 26 22 21
50 48 45 43 39 36 34 40 40 34 32 35 33 37 41 42 42 42 43 43 43 44 45 47 50 49 48 45 39 33 25 19 14 11 10 11 12 17
27 26 26 25 23 22 21 20 21 21 22 24 26 25 23 22 22 23 24 24 24 22 20 18 16 14 12 10 10 10 10 9 9 11 12 16 23 24
15 14 14 15 14 15 15 16 16 17 17 17 17 17 17 17 18 18 18 18 16 15 15 12 13 13 12 11 11 11 12 14 16 18 20 21 22 23
19 19 20 20 20 19 20 21 21 21 22 22 22 22 20 20 20 19 19 18 16 15 15 14 13 15 16 16 16 18 20 21 22 22 23 24 23 23
24 25 25 25 25 25 24 24 25 25 25 25 24 24 24 24 23 20 19 18 16 15 16 18 18 20 21 23 23 23 24 25 26 26 27 28 28 28
31 30 30 29 29 28 27 28 28 26 25 25 24 23 22 21 20 20 19 19 20 22 24 25 25 26 26 26 26 26 27 28 29 29 31 32 33 31
39 39 38 37 36 34 33 32 30 28 27 25 23 22 22 21 21 22 25 28 29 30 31 31 32 33 33 30 29 30 30 32 33 34 35 37 38 36
45 45 44 43 39 36 35 33 32 30 29 28 26 26 26 27 30 33 34 34 34 34 36 38 37 37 36 33 30 32 34 37 38 40 41 42 42 40
46 46 48 48 45 41 40 38 35 34 33 33 32 33 35 38 40 40 40 38 37 39 41 42 41 38 36 37 37 40 42 45 46 46 46 47 45 46
47 50 52 51 50 48 44 43 41 39 38 37 38 40 42 44 45 45 44 43 42 44 46 45 44 41 42 44 46 49 54 56 61 59 56 55 53 52
49 52 53 51 50 48 49 48 46 43 41 41 42 41 43 47 48 49 48 47 47 47 47 50 49 50 51 54 56 61 66 70 72 72 69 66 65 64
52 54 55 54 52 49 49 49 48 46 46 46 46 44 44 47 49 50 49 47 48 47 45 46 49 52 55 59 63 65 72 77 84 82 81 76 73 77
56 56 56 56 54 52 52 52 48 47 49 49 47 46 46 46 46 44 41 45 44 43 42 45 49 53 56 58 61 69 73 85 91 92 92 87 78 79
59 60 62 60 60 61 57 55 51 51 52 51 48 47 46 46 43 43 46 45 43 42 45 52 59 63 63 64 62 64 78 79 90 92 93 90 82 79
62 63 64 64 66 65 60 56 51 46 44 43 41 42 46 46 48 50 51 51 51 51 53 58 64 66 64 65 62 62 69 80 84 85 88 84 80 76
66 68 69 68 67 58 48 45 43 43 43 43 44 48 53 55 57 62 60 58 55 56 57 60 65 67 69 69 64 63 65 70 76 79 80 81 77 70
71 75 73 64 54 51 48 46 46 48 48 49 52 58 61 62 67 64 60 56 55 57 59 60 65 67 65 66 63 60 61 66 69 67 67 72 71 67

GFSNE_prec_cthk_069.txt.gz
RH
33 37 36 36 35 38 39 41 40 42 45 50 48 48 46 45 48 50 54 56 63 73 82 94 95 93 89 93 92 96 96 97 97 97 97 97 97 98
34 34 35 36 37 39 39 39 42 46 48 50 48 45 47 48 51 53 55 62 67 74 85 93 97 97 94 97 97 97 98 97 97 98 98 97 97 97
34 34 35 37 39 41 40 44 48 48 49 49 47 46 48 48 50 51 54 61 67 69 82 87 90 93 96 97 97 97 97 97 97 98 97 98 97 94
36 37 40 42 43 43 46 49 49 49 50 49 47 46 46 48 50 50 55 59 63 67 71 75 81 91 96 98 98 97 97 97 96 97 98 97 97 93
42 45 45 47 47 48 48 49 50 50 48 46 45 46 42 42 44 44 46 51 56 57 61 64 72 77 83 86 87 87 86 88 87 88 86 85 84 85
49 49 49 49 48 46 43 37 41 43 36 30 30 33 30 32 34 34 36 38 40 40 42 43 45 48 49 53 59 62 63 64 64 64 61 59 51 43
42 37 34 32 30 29 27 26 25 26 27 26 28 28 29 29 30 29 29 30 31 33 36 37 40 42 43 44 45 44 44 43 39 31 23 16 12 11
22 19 17 16 15 15 15 15 16 17 18 18 19 19 20 20 20 20 19 19 18 17 17 16 15 14 14 14 14 13 13 13 12 11 11 11 12 17
19 19 20 20 20 20 21 21 21 21 21 21 22 22 22 22 21 20 20 19 18 18 17 15 14 14 13 12 12 12 12 12 13 13 14 17 22 24
24 25 25 25 25 24 24 24 24 24 24 24 25 25 24 23 22 21 21 19 18 18 17 17 16 16 17 17 17 18 19 20 22 23 24 24 25 24
32 33 33 33 33 31 30 29 29 28 28 28 28 27 25 25 23 22 21 20 19 19 20 22 22 22 23 22 23 24 25 27 27 27 26 26 26 26
38 39 40 40 40 39 38 36 34 33 32 31 29 28 26 25 24 24 24 23 24 27 28 29 28 28 28 29 29 29 29 29 29 29 29 29 28 28
39 41 42 42 42 43 42 40 38 36 35 34 32 31 30 29 29 29 31 33 34 35 36 36 34 34 34 33 32 34 33 32 30 29 29 30 31 32
41 40 41 42 46 47 46 44 42 40 39 39 38 37 36 36 38 40 40 40 40 40 41 41 41 40 40 39 37 36 35 34 32 32 33 34 36 37
41 41 44 48 48 48 46 46 45 44 43 42 42 42 41 42 45 46 46 45 45 45 46 47 47 46 44 44 40 38 36 37 39 39 41 42 43 43
45 48 50 50 51 49 48 45 44 43 43 43 42 42 42 44 48 50 50 50 51 52 54 53 49 47 49 47 45 42 46 47 50 50 50 50 51 51
49 51 54 54 54 52 50 48 47 46 47 47 46 44 44 44 43 41 42 46 50 50 48 49 50 50 46 43 41 45 49 52 55 59 59 60 64 67
51 56 58 59 59 58 55 54 53 50 51 50 48 43 37 33 31 31 33 37 42 43 44 45 47 45 44 40 42 45 48 51 56 59 64 67 72 81
56 58 62 63 64 62 59 60 56 54 52 45 35 33 33 33 32 32 34 38 43 46 48 50 48 49 45 46 46 51 53 58 58 59 63 67 69 84
58 60 64 67 69 68 66 64 61 51 39 36 34 35 35 36 36 38 40 46 48 51 56 56 59 56 53 52 48 53 60 59 60 59 63 67 69 75
60 63 66 72 74 73 69 64 53 42 38 36 36 39 40 43 43 46 50 55 57 61 59 57 58 57 56 54 51 53 60 63 64 62 63 63 64 66
67 67 67 74 76 75 70 58 49 43 42 42 46 47 50 51 53 56 59 60 62 64 58 54 56 59 61 61 58 56 55 59 62 61 62 63 63 59
70 68 68 72 74 73 63 51 48 46 46 47 52 55 56 58 60 61 62 62 65 59 55 51 57 60 63 63 64 66 60 57 58 57 60 60 59 57

GFSNE_prec_cthk_072.txt.gz
RH
33 38 40 41 42 41 38 39 40 45 43 44 46 46 45 43 42 42 43 45 48 50 56 59 66 77 86 90 90 98 97 91 91 95 97 98 97 97
33 35 37 38 38 37 38 40 42 42 46 48 48 47 44 45 44 43 45 45 48 53 57 59 68 72 83 96 93 97 97 96 96 96 97 97 97 97
32 35 36 37 38 38 41 41 43 48 49 49 48 46 46 44 46 44 46 46 50 52 55 58 64 65 74 85 94 97 97 97 97 96 97 97 97 97
35 35 36 38 41 44 44 45 49 50 48 49 49 48 46 45 41 42 44 43 44 48 51 48 53 61 70 76 84 90 95 96 97 96 96 96 95 96
38 40 43 45 46 47 47 47 45 47 47 44 32 31 35 36 33 35 36 36 35 38 40 41 43 42 46 52 59 73 81 85 86 85 87 87 88 88
48 49 47 47 48 43 37 32 29 29 29 30 29 29 29 29 29 29 31 32 33 34 36 38 39 40 41 43 44 46 50 54 61 68 71 71 72 74
40 35 32 29 30 29 27 25 24 23 24 24 25 25 25 25 24 23 22 22 22 24 26 27 31 33 35 38 40 41 42 44 45 46 46 46 45 41
27 23 19 18 19 19 19 18 18 19 19 20 20 21 22 22 22 22 22 21 23 20 18 18 17 17 17 17 17 18 19 20 21 20 18 15 13 11
19 22 23 23 24 24 25 24 24 23 23 23 24 24 25 24 25 26 24 23 23 23 19 18 17 17 16 16 15 14 14 13 12 13 13 13 13 15
26 26 27 29 30 31 31 32 31 31 30 30 30 30 30 29 27 26 25 24 24 22 20 20 19 19 19 19 18 18 18 17 17 17 18 20 24 27
30 32 34 36 36 37 38 37 36 35 34 32 31 31 31 30 29 29 30 29 31 30 26 27 27 26 26 25 25 25 25 25 26 26 26 28 31 30
36 37 38 38 38 38 39 39 39 38 37 36 35 34 33 33 33 33 32 32 33 39 35 34 33 33 32 31 32 32 31 30 29 30 30 30 31 31
38 38 37 37 38 41 42 44 42 40 39 37 36 36 35 35 35 35 36 40 42 42 43 42 41 41 42 41 39 38 38 37 36 35 32 33 33 33
39 38 39 39 42 44 45 45 43 42 41 40 39 38 38 38 39 41 43 44 45 45 43 40 39 42 47 49 48 48 45 41 38 37 37 35 33 31
41 42 42 44 47 48 48 48 46 45 43 42 41 40 40 42 44 45 46 43 37 34 35 36 38 43 45 47 46 44 42 43 43 40 39 36 36 36
44 45 46 48 50 51 52 52 50 49 49 47 45 44 43 43 43 40 34 33 33 34 35 36 38 40 44 46 45 46 48 46 45 45 43 43 43 43
46 47 49 53 55 56 56 56 55 55 54 51 49 49 47 42 32 30 29 29 30 32 34 36 37 40 45 46 46 46 44 43 43 42 44 45 48 51
49 51 53 55 59 60 60 61 62 61 60 57 53 50 40 31 29 28 29 30 32 34 36 38 37 41 45 47 50 47 47 47 47 46 48 47 46 51
55 56 57 58 61 64 65 69 68 66 63 60 54 42 35 31 31 32 34 35 38 40 42 44 47 51 54 58 54 51 52 51 49 49 52 53 50 50
62 61 60 60 63 67 70 74 72 69 67 64 49 37 35 35 36 39 42 44 45 48 52 55 58 60 62 58 51 50 54 52 55 55 56 55 51 51
67 68 66 64 66 69 72 76 76 74 70 57 42 39 41 43 44 46 49 52 55 58 59 61 61 64 62 57 50 51 56 60 59 59 59 52 49 49
77 75 68 67 66 68 72 75 78 76 62 49 46 48 48 47 48 50 52 57 59 60 61 61 63 63 58 56 54 56 58 59 59 70 68 60 56 52
84 82 81 75 70 69 70 78 76 62 52 52 50 51 50 51 52 54 59 59 60 60 61 63 66 65 62 61 59 55 54 53 64 77 81 80 78 76

GFSNE_prec_cthk_078.txt.gz
RH
35 35 34 35 40 40 52 50 52 48 49 41 43 44 46 47 46 46 42 40 40 41 38 36 37 38 40 42 46 46 49 62 80 96 99 98 96 97
34 34 36 37 40 42 43 50 44 44 43 46 46 49 46 46 45 43 41 40 41 40 39 38 38 37 37 39 40 41 47 59 73 88 97 98 97 96
34 36 39 38 38 39 41 41 40 42 46 48 49 47 46 43 42 40 38 39 38 36 34 30 30 31 33 35 40 41 47 50 58 72 83 94 98 98
39 38 40 41 41 43 41 40 43 47 48 48 46 43 36 31 28 31 35 32 30 30 30 29 29 31 32 35 39 42 45 51 57 59 65 72 82 89
41 42 42 43 44 43 45 49 49 48 44 33 35 35 31 29 27 26 25 26 25 26 28 31 33 36 38 35 36 38 42 46 50 55 58 59 64 66
48 47 48 50 52 54 53 54 42 32 29 30 29 28 28 27 26 25 25 23 22 22 22 24 29 32 35 38 37 37 39 42 45 48 49 54 56 55
55 56 57 58 57 51 40 33 29 27 28 28 27 27 25 25 24 24 24 24 25 25 26 26 24 23 23 25 29 34 37 38 39 44 48 47 48 47
55 47 42 36 33 28 27 22 22 23 23 25 26 27 28 28 28 27 27 27 27 28 27 26 24 24 23 22 21 20 20 22 27 34 38 44 48 48
48 36 33 33 29 30 26 26 28 28 29 31 32 31 31 29 28 28 29 28 28 28 28 27 26 27 25 25 24 23 21 20 19 19 19 19 19 20
42 40 37 34 33 30 29 32 35 35 35 33 32 31 31 31 30 29 29 29 30 30 30 29 29 29 29 30 29 29 27 26 24 22 19 18 19 20
39 39 37 36 32 34 36 38 39 37 35 34 35 36 34 32 32 32 30 30 29 33 31 33 33 33 34 34 33 31 26 21 21 21 22 23 23 24
40 38 38 36 37 38 39 40 41 39 39 40 39 37 37 36 35 34 33 33 32 36 37 39 38 38 38 34 26 23 23 23 24 24 25 25 27 27
39 41 42 41 40 40 41 42 43 42 44 45 43 42 41 40 38 37 36 37 38 40 42 43 42 39 31 26 24 24 24 25 27 27 27 28 29 30
42 45 44 43 42 42 43 46 46 47 47 50 51 49 47 47 44 43 42 43 44 44 45 44 36 28 26 25 25 26 28 29 30 31 32 32 33 34
43 44 44 44 44 44 48 51 51 52 52 54 57 56 54 52 50 47 45 45 45 44 41 32 26 25 26 28 29 29 29 30 31 32 35 37 39 40
42 43 43 43 44 49 52 54 55 57 58 60 62 63 61 58 55 53 50 49 48 42 31 23 23 26 30 31 31 30 30 31 33 36 38 41 41 41
40 41 42 44 50 53 56 56 59 62 64 66 68 68 65 63 60 58 55 54 52 38 26 27 29 31 33 33 33 33 36 38 41 43 46 46 46 48
43 45 52 54 55 56 56 57 61 67 67 69 70 70 70 68 66 63 60 58 46 31 31 33 35 36 36 36 37 40 42 42 45 47 49 49 49 49
61 65 62 58 56 58 61 70 67 66 68 70 71 72 73 73 71 69 67 57 37 35 37 38 39 39 40 40 42 46 43 46 48 49 50 52 49 46
55 57 59 60 63 69 71 76 68 68 69 70 73 75 76 78 77 75 69 47 41 41 43 44 44 46 46 44 46 46 49 51 54 53 53 52 50 48
64 66 68 68 69 72 76 78 77 76 71 70 73 76 78 81 81 79 58 47 45 46 48 48 48 49 48 47 48 49 55 61 62 58 53 50 47 45
79 78 79 80 81 86 83 82 89 81 76 77 77 78 81 84 84 68 57 50 49 50 52 52 53 52 50 50 51 54 64 66 62 57 53 52 51 49
95 95 95 95 93 90 88 93 96 90 90 83 83 83 88 86 74 60 55 52 52 53 55 57 56 54 52 53 57 64 66 56 52 50 52 57 56 55

GFSNE_prec_cthk_081.txt.gz
RH
42 39 38 38 39 40 40 42 47 51 53 52 50 46 46 47 48 47 43 42 40 39 40 38 37 36 36 37 39 38 37 38 44 58 75 82 90 94
40 39 38 39 39 38 44 46 53 50 54 53 46 48 49 50 47 44 41 40 38 38 39 38 36 33 33 32 33 33 30 36 42 55 69 79 84 92
43 42 41 42 41 41 42 44 46 47 49 46 48 50 50 47 39 33 35 36 40 38 34 31 27 25 28 28 31 36 36 37 44 52 63 68 79 81
46 45 44 44 43 42 44 43 43 45 44 49 51 50 46 41 35 28 25 25 25 24 24 25 25 26 27 29 34 37 41 42 49 50 56 59 63 63
50 47 46 45 44 46 45 45 46 47 51 54 44 35 35 33 30 29 27 27 28 27 27 28 28 29 30 35 35 38 40 43 44 51 52 54 60 62
53 52 50 47 50 49 49 52 55 55 51 35 33 31 30 29 28 27 26 25 24 23 23 23 24 26 29 31 35 36 37 37 41 43 48 52 56 59
58 54 55 55 56 58 62 58 48 40 32 31 29 28 25 25 26 26 25 26 25 24 27 26 26 25 24 23 24 28 33 37 40 38 39 42 45 49
65 65 63 60 52 45 42 39 35 30 28 25 26 28 29 30 32 30 28 27 27 26 27 26 25 25 24 24 23 23 23 23 26 35 36 33 36 39
68 58 48 42 40 40 39 37 33 33 29 30 32 35 35 34 32 30 29 29 27 27 28 27 27 27 27 27 26 26 24 23 23 22 22 22 22 23
53 47 45 47 47 43 40 36 39 34 36 38 38 37 35 34 33 31 30 30 30 29 30 29 29 30 31 30 30 31 31 30 28 25 20 15 13 13
48 49 49 47 46 44 39 41 40 44 43 41 40 38 38 37 35 34 33 33 33 31 32 34 34 34 35 35 35 35 34 30 23 20 19 19 20 20
49 50 50 47 45 46 45 45 46 45 44 43 44 45 43 41 39 38 38 36 36 37 38 39 39 40 40 39 39 37 29 24 22 21 21 21 22 23
51 53 51 47 45 45 46 48 48 46 47 49 51 51 49 47 46 44 44 43 42 43 44 44 44 45 44 42 35 25 23 23 23 24 24 25 25 26
47 46 47 47 51 50 48 49 49 49 51 54 55 54 56 54 52 51 50 49 47 47 48 47 46 45 40 30 23 22 23 24 26 26 26 27 27 28
47 48 49 50 50 49 49 50 49 52 55 57 56 58 63 64 60 57 56 54 51 50 49 48 47 43 33 25 24 24 25 25 25 26 27 28 28 30
40 43 45 47 48 48 48 48 51 55 58 60 60 66 69 69 66 62 60 58 56 54 53 52 49 37 29 25 27 28 29 29 28 30 31 33 34 35
42 42 43 43 44 45 46 47 53 59 62 62 65 74 72 70 68 66 64 64 62 59 57 57 50 34 29 31 31 33 33 33 33 34 35 36 38 40
43 44 45 46 46 48 52 63 62 59 62 74 78 72 71 71 70 70 69 68 68 66 65 64 44 33 35 36 37 37 37 35 36 38 38 39 39 43
50 53 59 63 68 74 73 70 64 68 82 78 71 73 73 73 74 74 75 75 74 74 73 62 39 39 40 41 42 41 38 38 38 39 40 42 44 47
51 50 51 52 54 57 60 64 68 70 76 79 74 73 74 75 77 77 79 80 81 81 78 53 43 45 47 47 48 45 43 41 41 43 46 51 52 52
59 67 62 62 65 68 70 71 72 74 83 86 85 79 76 75 79 79 83 85 85 84 68 51 52 51 51 52 50 46 44 44 45 49 53 56 56 49
84 90 92 91 89 85 83 83 86 93 91 96 90 85 83 83 83 85 89 88 86 77 62 55 53 54 55 56 53 48 46 46 52 58 62 54 46 42
95 97 97 97 97 97 97 97 94 97 95 97 96 97 90 86 87 94 90 89 87 70 61 55 55 58 60 60 55 49 48 51 58 58 47 50 50 50

GFSNE_prec_cthk_084.txt.gz
RH
48 48 46 43 44 44 46 45 47 53 51 55 55 56 55 53 47 47 47 45 41 38 38 37 37 36 34 34 35 35 32 33 35 37 45 70 71 78
48 47 46 45 46 48 46 46 46 48 50 51 57 57 52 49 49 51 46 40 39 35 38 38 36 33 27 26 28 32 31 29 30 33 41 63 74 79
50 49 50 49 50 50 48 48 50 49 52 55 51 54 50 50 51 48 35 28 33 36 38 30 27 25 23 24 26 31 34 33 36 39 52 70 72 71
52 52 51 50 53 53 50 48 48 48 52 52 52 51 52 52 50 42 34 26 27 25 25 24 23 24 25 28 30 33 39 41 41 47 51 58 62 68
56 56 54 51 53 55 52 51 52 51 52 53 54 55 48 44 37 32 31 30 28 27 25 25 26 27 28 29 31 33 38 41 47 47 54 55 57 65
63 61 59 58 58 57 58 56 54 56 59 59 61 45 36 32 31 30 28 27 25 24 23 22 23 23 24 26 28 31 33 35 40 44 49 49 52 53
67 69 68 66 67 64 63 60 61 64 63 52 41 36 30 30 27 26 27 28 26 26 25 24 25 24 23 22 22 23 28 31 34 35 41 44 46 49
67 70 72 74 68 73 74 72 66 52 43 39 41 38 34 30 31 31 32 31 29 28 27 26 25 24 24 24 23 22 23 23 25 29 36 37 38 39
71 72 69 60 49 45 42 42 42 42 41 42 37 37 37 38 37 35 34 33 31 30 28 27 26 26 25 26 25 25 26 25 24 25 25 26 29 30
76 68 54 51 49 47 47 52 50 42 44 40 46 44 46 42 40 39 37 36 34 32 30 29 29 29 29 30 30 30 31 31 30 30 29 27 21 15
57 51 50 51 49 57 54 51 50 48 49 50 48 49 47 45 44 42 40 38 36 36 36 34 34 35 35 35 35 35 36 36 35 35 31 24 19 18
54 52 51 57 60 56 53 50 52 55 53 52 51 50 52 53 51 47 44 42 40 40 40 41 40 40 40 40 40 40 40 39 36 29 22 20 19 19
54 54 54 57 57 54 53 54 53 53 53 53 51 52 57 59 58 55 53 50 49 48 46 46 45 46 45 44 43 40 38 33 27 23 21 21 22 23
59 58 61 56 54 51 51 55 56 53 53 56 54 55 58 60 63 61 60 59 57 54 52 50 50 49 48 46 44 40 33 27 24 23 23 24 24 23
52 49 49 50 52 51 55 56 54 53 55 56 55 57 60 60 64 70 70 68 64 60 58 55 53 53 52 50 47 37 30 27 24 25 26 26 25 25
42 41 41 43 46 48 49 50 51 52 52 53 55 58 64 65 72 79 76 72 67 63 61 59 58 57 57 56 51 38 33 30 29 30 29 29 28 29
41 42 42 43 44 44 45 46 47 48 49 51 59 71 72 76 83 77 74 73 69 66 66 65 63 63 64 63 52 39 36 33 34 34 33 32 32 33
45 44 42 43 44 45 47 49 50 54 64 72 74 80 81 81 76 74 74 73 74 73 70 70 70 70 70 68 52 42 39 36 37 38 37 35 33 33
47 44 45 47 49 52 57 62 68 69 69 69 73 81 87 83 77 76 76 77 77 78 77 75 74 74 76 70 51 46 41 42 41 41 39 37 35 34
59 56 51 51 51 50 51 53 55 58 60 62 70 75 83 83 80 81 79 78 80 82 84 81 79 79 80 67 52 46 49 47 46 43 41 40 38 39
70 72 72 70 63 60 65 69 68 69 71 75 77 81 93 88 90 84 81 79 83 85 88 86 84 84 80 61 52 50 51 52 49 45 44 42 43 43
79 83 91 94 83 92 94 90 87 87 85 87 91 96 97 96 90 86 83 86 87 91 92 91 89 86 77 61 59 54 55 54 50 48 47 48 49 51
88 86 87 90 93 95 96 95 94 93 93 92 90 93 94 97 97 97 92 90 97 96 94 93 91 84 67 63 59 58 58 57 53 48 48 53 54 50

GFSNE_prec_cthk_087.txt.gz
RH
54 54 51 52 51 49 50 53 57 59 56 55 61 57 58 59 57 55 50 48 46 42 39 38 36 35 37 36 34 34 31 30 30 32 31 35 57 72
56 52 52 52 51 51 52 52 54 59 58 55 57 54 57 61 59 54 51 50 43 40 38 36 38 36 35 29 25 27 29 28 26 26 28 34 50 71
58 58 58 55 53 51 54 55 59 59 57 60 61 61 61 59 57 56 57 45 31 31 31 35 30 27 25 23 24 26 26 29 28 30 32 39 60 67
56 56 58 59 56 56 57 56 57 58 59 58 58 61 60 58 60 58 56 43 36 27 26 25 23 20 21 24 28 30 34 38 36 40 46 50 60 62
52 54 55 58 61 62 61 61 59 59 58 58 61 59 61 63 61 53 47 40 31 28 27 25 23 22 23 26 29 32 36 42 44 45 50 57 65 64
52 54 56 58 60 64 69 70 67 65 62 60 62 64 67 65 46 43 42 34 30 25 24 24 24 23 22 23 26 29 33 36 41 42 52 55 61 66
56 58 59 63 65 67 69 71 74 73 72 70 73 70 53 43 41 38 33 30 28 27 28 29 28 26 25 24 23 23 25 31 33 40 44 44 53 54
62 64 66 68 69 72 76 76 79 78 81 74 58 48 46 39 36 39 36 35 34 35 34 33 30 28 26 25 24 22 22 22 24 29 35 38 41 41
69 72 74 73 66 57 52 54 55 50 46 47 49 46 41 46 46 39 42 42 40 37 36 34 32 30 29 28 26 25 25 25 24 24 24 27 33 38
69 76 76 63 53 51 50 49 49 50 49 46 49 53 50 53 49 49 48 45 42 38 37 36 34 33 32 32 30 30 30 30 30 30 30 30 30 29
78 74 60 54 51 52 49 52 56 57 55 51 52 52 56 52 54 54 51 48 43 41 40 39 38 38 38 37 36 35 36 36 36 36 37 37 36 34
62 56 55 54 53 54 57 60 63 61 61 60 61 58 56 59 58 58 58 54 48 45 44 43 44 43 43 42 42 42 41 41 41 40 39 37 32 25
58 56 56 56 55 61 66 60 58 59 61 60 58 59 60 58 58 61 62 61 57 54 52 52 51 50 49 49 47 46 45 43 42 39 34 29 25 24
58 53 60 57 62 65 61 56 54 56 58 60 59 59 63 60 58 60 64 67 65 63 61 60 58 57 55 53 53 49 48 47 45 39 32 29 26 25
53 56 59 58 56 53 52 53 54 57 62 58 58 58 58 59 59 60 64 73 82 79 75 70 65 61 58 55 53 51 51 51 47 39 33 30 30 25
54 53 55 48 47 50 51 51 51 52 54 55 56 57 56 56 56 62 81 82 85 81 77 72 68 65 62 60 59 56 55 55 52 42 36 34 33 29
52 47 44 43 42 43 44 46 46 47 47 49 51 51 54 62 75 83 83 81 77 75 75 75 72 70 70 69 69 66 64 62 58 48 40 37 37 34
50 48 46 45 46 46 46 45 45 46 49 53 61 71 76 80 78 80 81 81 77 75 75 75 77 76 76 75 74 72 69 67 61 50 41 39 36 36
53 49 48 47 45 45 45 46 48 52 57 61 66 66 65 69 76 79 85 83 81 79 77 77 77 78 79 82 79 79 75 71 65 53 45 43 38 38
59 57 62 61 58 55 52 51 51 56 58 59 61 62 63 65 71 79 84 87 87 88 85 82 81 81 84 85 86 85 78 76 64 52 49 46 44 40
73 74 69 64 64 66 64 64 68 68 64 73 79 75 74 75 79 86 91 96 95 90 88 86 86 89 90 89 89 85 85 77 66 56 54 51 46 40
87 80 77 78 78 83 90 85 79 81 89 89 86 85 87 91 94 93 93 93 90 87 89 90 95 94 93 93 92 89 87 76 64 63 58 54 49 44
93 92 89 82 80 80 83 83 83 83 82 82 83 82 82 86 88 89 91 91 92 93 96 97 97 96 97 96 93 90 83 67 65 66 63 56 49 48

GFSNE_prec_cthk_090.txt.gz
RH
72 69 62 56 56 54 53 52 52 55 56 58 63 62 62 65 65 65 60 59 53 50 47 42 42 41 41 37 37 36 35 32 28 31 31 30 33 47
64 63 61 59 58 59 59 57 56 57 59 58 59 61 62 63 62 64 65 62 55 54 49 47 39 42 39 38 34 29 31 29 23 25 28 30 32 45
64 61 59 59 58 57 57 59 60 63 62 62 61 59 64 66 65 66 61 60 58 50 39 36 41 37 34 32 24 21 25 25 26 26 25 29 34 48
58 54 53 51 51 49 50 54 59 65 67 64 64 64 69 68 64 64 58 63 62 50 35 32 27 23 22 20 21 22 26 29 33 36 36 38 43 56
47 46 46 47 47 49 51 52 55 59 63 67 72 72 68 68 67 67 67 66 63 43 38 36 25 22 21 23 25 28 31 35 41 43 49 51 54 61
46 47 48 49 50 53 54 58 62 64 66 69 72 74 76 72 72 74 58 54 49 44 40 26 26 24 22 23 24 26 31 36 43 42 47 55 57 54
47 50 53 55 56 59 62 64 67 69 72 76 75 76 79 81 70 55 51 47 42 37 30 31 29 28 29 28 27 26 26 31 36 42 43 49 50 55
53 55 57 59 62 64 66 69 71 74 76 79 83 82 70 58 48 50 46 40 37 37 34 36 38 36 34 31 29 27 25 24 28 33 39 40 45 50
59 61 63 62 64 62 56 53 66 72 73 67 60 53 51 57 55 47 47 50 46 44 47 45 43 41 37 35 32 31 29 26 24 24 25 30 37 39
63 64 66 66 62 54 52 50 49 47 47 50 50 53 52 54 55 53 54 52 51 53 51 48 45 40 38 37 36 35 35 33 30 29 28 27 27 27
64 66 68 63 51 53 53 52 50 52 56 60 63 62 57 56 60 60 58 61 58 55 53 50 47 44 42 42 41 40 39 38 37 37 37 36 35 35
67 64 58 51 51 51 53 52 56 59 61 64 66 62 64 64 59 63 65 61 62 61 58 55 52 50 47 46 45 45 45 44 44 44 44 43 42 40
59 53 51 52 50 52 56 58 61 63 61 62 67 68 64 62 66 65 60 61 65 66 65 63 60 57 55 54 52 52 52 52 51 48 47 45 43 40
57 58 58 52 54 56 56 59 57 56 57 57 59 61 63 61 63 69 65 62 65 68 71 70 68 66 64 61 60 59 58 57 55 53 51 48 45 40
62 59 58 53 60 56 60 62 60 57 57 59 63 68 64 62 63 65 62 60 60 67 83 85 83 77 74 70 67 64 63 61 59 57 55 52 49 43
60 55 56 55 60 57 54 51 52 53 53 52 53 55 55 54 54 55 57 64 73 79 78 79 79 79 74 71 69 66 65 64 64 62 61 58 55 50
63 59 58 52 55 52 46 46 46 46 47 48 48 49 50 53 57 67 77 79 78 76 77 75 74 76 76 75 74 71 69 69 67 65 64 63 60 56
75 70 60 54 48 46 44 43 44 46 48 48 46 48 52 64 72 75 74 77 79 78 80 78 76 75 77 79 79 77 75 73 71 70 69 68 65 58
80 68 61 55 49 48 49 49 48 49 49 50 50 50 55 59 62 65 70 74 76 78 83 83 82 81 80 81 83 85 83 78 76 76 73 71 70 61
78 65 57 57 58 56 57 56 55 50 50 52 53 55 61 61 67 75 73 75 78 84 89 92 94 91 88 87 87 89 90 88 83 82 77 75 74 62
90 78 80 70 65 67 73 71 68 66 66 65 64 73 71 76 85 84 80 79 84 91 96 96 92 90 89 89 91 93 95 94 90 87 84 79 78 67
97 97 94 83 81 79 76 75 75 81 83 80 72 68 77 79 77 75 76 79 84 85 85 85 81 81 83 88 90 91 96 96 95 91 89 84 74 60
97 97 97 97 93 87 80 79 76 79 84 85 81 80 81 77 75 76 77 81 84 85 87 88 85 89 91 88 88 93 96 96 95 91 85 77 73 67

GFSNE_prec_cthk_093.txt.gz
RH
75 74 69 63 64 63 60 62 60 59 60 58 60 61 62 58 64 64 64 67 64 62 61 52 47 48 48 47 44 38 34 34 33 30 28 27 30 38
75 69 64 64 63 62 62 62 59 59 58 60 64 64 64 64 67 67 65 64 66 66 62 55 49 51 50 44 44 39 35 33 30 27 27 29 30 33
76 72 69 65 60 57 54 52 51 51 50 53 55 59 62 65 63 67 66 68 68 66 64 54 44 47 47 44 39 35 27 22 24 25 22 27 30 32
65 58 52 49 48 45 43 43 47 48 51 54 56 58 60 64 70 71 72 70 70 68 67 53 40 35 33 28 20 20 23 23 28 32 30 28 33 36
48 45 43 42 43 43 43 46 50 51 53 57 59 63 65 70 71 74 76 71 72 74 69 55 43 33 37 24 21 22 26 31 37 41 41 43 44 49
41 41 41 42 42 46 49 52 55 57 60 62 64 67 70 74 75 76 77 77 66 63 55 47 43 42 29 24 24 22 26 34 40 44 51 50 52 52
39 39 41 45 48 50 53 55 57 60 64 66 68 71 72 74 78 80 78 64 57 57 50 45 39 36 29 31 27 25 26 31 40 45 47 53 54 54
43 47 50 52 55 56 58 57 56 63 67 71 74 77 81 84 75 60 52 51 48 43 46 39 42 37 36 36 35 34 30 28 32 43 43 44 54 55
51 54 56 58 58 59 56 48 50 61 70 75 77 73 64 56 57 59 56 57 53 53 49 47 48 48 48 46 44 40 36 31 29 29 37 40 42 43
61 61 59 58 60 56 48 47 46 46 45 46 47 49 51 55 57 60 60 59 58 61 58 56 57 55 51 48 46 43 39 37 34 31 30 28 27 31
59 58 59 61 62 51 47 49 48 48 49 50 54 55 58 60 59 58 63 63 65 66 66 63 59 55 52 50 47 45 43 42 40 38 36 34 32 30
57 59 63 63 50 45 46 47 49 49 50 55 59 61 59 60 64 63 63 71 68 66 69 70 65 61 57 54 52 50 48 47 45 44 42 41 40 39
64 64 58 51 47 51 49 51 52 53 56 59 60 63 66 66 64 64 68 71 69 65 66 69 71 69 64 61 58 56 54 53 52 51 50 48 49 48
64 55 51 52 53 54 53 56 58 58 59 58 56 58 60 61 63 64 65 66 67 67 68 73 75 73 73 72 69 65 63 62 60 58 57 56 55 54
62 58 53 55 56 54 56 57 56 59 58 56 57 60 63 68 66 64 62 60 60 60 65 73 76 80 79 78 77 75 74 71 69 67 65 64 62 60
71 64 58 57 58 52 57 59 60 59 57 54 54 54 55 55 54 54 54 55 63 71 73 75 75 74 76 78 76 74 72 72 71 69 68 67 66 66
81 77 69 62 59 51 57 62 59 56 51 50 49 48 49 49 50 51 54 68 76 74 73 77 76 76 74 76 78 77 77 76 76 76 75 74 72 70
88 87 78 74 63 58 57 59 56 50 47 46 47 47 48 47 48 50 58 67 71 74 76 74 74 82 82 79 79 78 79 78 78 78 77 77 76 74
94 91 88 77 69 61 59 56 49 48 48 49 50 53 53 51 52 53 57 61 65 73 77 79 83 86 87 87 85 84 81 85 85 83 82 82 82 79
93 93 93 80 66 60 57 58 56 54 56 55 55 49 48 49 53 57 62 72 76 81 79 79 82 92 94 93 91 91 92 91 93 92 89 87 86 85
96 97 97 77 66 62 61 64 72 71 70 70 67 65 66 64 64 70 73 78 86 84 79 79 86 87 85 84 84 83 81 83 84 86 85 81 83 87
98 98 98 97 83 81 76 72 74 76 77 73 73 80 84 76 69 67 77 77 72 70 70 76 77 79 80 79 80 81 84 85 86 85 83 83 86 89
91 96 98 98 97 98 94 87 84 83 84 81 83 83 84 80 74 81 78 71 67 66 72 74 75 78 79 80 83 86 87 88 89 90 92 88 86 87

GFSNE_prec_cthk_096.txt.gz
RH
68 68 66 63 63 65 62 61 64 63 63 65 60 58 58 60 62 65 66 68 72 66 66 65 64 61 52 53 48 47 47 47 40 33 31 29 28 30
66 67 68 70 67 65 65 64 62 62 57 54 49 48 48 51 54 57 60 63 64 62 65 66 63 59 52 56 51 52 52 46 38 32 30 30 28 29
69 69 67 68 68 63 57 53 51 50 47 44 43 45 49 51 56 59 63 66 67 68 68 69 64 60 54 55 51 54 53 43 29 27 23 28 31 31
64 61 59 55 51 50 47 44 43 45 44 44 46 50 52 55 59 62 68 70 71 73 74 68 68 55 45 44 45 38 40 26 23 28 25 27 32 34
54 50 47 45 43 41 41 42 42 44 45 47 51 54 56 59 62 66 70 73 75 77 75 75 72 51 38 37 33 31 31 27 25 34 36 35 36 39
49 45 42 39 39 39 39 41 45 47 49 51 54 57 60 63 66 69 73 77 79 81 75 75 61 45 43 37 41 37 27 30 32 40 47 51 50 51
42 42 41 39 40 43 44 45 49 51 53 55 56 60 64 67 69 72 75 79 77 66 63 55 44 47 50 48 42 32 31 29 34 40 55 55 55 58
40 40 43 45 47 50 50 53 53 52 52 54 60 65 69 73 77 79 70 60 57 55 54 54 50 50 43 44 36 34 35 27 32 45 48 59 61 59
44 43 47 51 53 55 55 53 50 47 49 58 65 69 73 70 63 58 56 58 58 56 55 54 52 51 49 45 42 42 40 36 36 37 48 50 57 60
50 51 54 55 54 56 55 47 40 38 38 47 51 55 54 52 54 56 55 57 60 59 58 62 59 56 56 53 52 51 49 48 44 39 36 40 46 50
56 57 59 55 53 55 51 43 42 39 37 40 43 44 48 51 54 56 58 61 64 65 66 68 66 64 61 59 57 54 51 49 47 44 41 36 33 33
64 64 64 56 56 58 47 43 41 42 41 45 46 49 53 57 58 59 59 60 65 66 64 65 70 73 69 64 59 55 52 50 49 49 47 44 42 39
71 71 68 61 59 50 43 43 46 46 47 50 52 56 58 60 64 61 58 61 65 68 68 71 73 71 72 71 68 61 57 55 53 51 50 49 47 45
76 74 67 54 46 44 44 46 47 51 56 56 59 59 57 58 61 61 60 62 66 68 71 68 68 72 73 68 67 68 63 60 60 58 56 54 52 51
78 70 59 52 47 47 48 50 50 53 58 60 62 59 56 58 61 68 68 65 61 61 59 64 70 70 69 71 75 75 75 71 70 67 64 62 61 60
74 69 62 59 57 51 52 52 52 55 57 59 61 60 57 58 57 56 56 56 55 57 64 72 70 68 71 73 72 75 76 74 72 75 76 73 72 71
76 71 68 65 63 60 57 55 52 56 57 63 62 57 54 55 53 52 52 52 53 58 72 72 74 75 73 75 76 72 75 77 77 76 74 74 74 75
76 77 77 74 73 68 61 61 59 61 61 62 61 54 50 48 49 49 49 50 51 56 64 66 70 74 77 80 82 80 78 78 78 79 80 79 77 75
82 83 83 85 80 73 67 65 61 60 70 71 59 52 47 47 48 52 55 53 53 55 58 65 75 77 79 83 87 88 86 84 83 85 88 88 87 83
91 89 88 89 86 78 72 67 65 68 64 57 56 54 57 55 53 51 49 50 52 57 65 72 79 78 77 84 90 89 87 87 89 89 89 90 89 89
93 93 93 93 92 84 75 68 67 64 62 60 57 60 64 60 62 66 67 65 64 69 75 81 75 70 72 78 79 78 75 74 73 74 75 76 77 80
92 91 93 95 95 93 76 68 67 60 65 73 77 77 74 74 72 77 82 77 69 70 78 73 67 66 71 73 73 72 70 69 70 75 77 77 80 82
93 94 92 92 94 96 91 77 75 76 81 78 82 83 82 82 87 92 88 78 73 80 77 67 62 64 67 68 69 69 68 68 69 70 71 73 76 78

GFSNE_prec_cthk_099.txt.gz
RH
64 64 63 60 61 61 61 58 58 61 63 64 62 58 52 49 51 50 49 48 50 56 59 58 56 57 56 54 50 54 53 53 51 46 47 38 36 30
66 60 56 59 58 59 57 58 61 59 56 52 49 47 44 41 42 45 48 48 53 53 57 61 59 63 62 55 50 56 56 56 57 46 43 37 33 30
59 60 58 58 55 56 56 53 50 50 47 45 41 42 42 43 45 47 49 53 56 60 61 66 67 67 65 58 48 53 55 57 57 53 45 38 34 32
61 59 57 53 49 47 43 42 43 43 42 42 42 43 45 47 48 51 55 57 62 64 67 68 70 68 69 53 44 46 45 48 49 48 40 27 33 39
58 55 54 48 44 42 41 39 38 36 38 41 41 44 46 48 51 53 56 59 62 66 68 71 71 73 66 48 37 35 37 44 44 44 37 29 30 34
60 56 53 45 40 38 37 38 38 38 40 42 45 48 52 53 54 56 59 62 66 68 69 72 67 65 51 46 41 41 42 38 50 44 39 43 40 37
56 51 49 42 38 38 38 41 42 43 46 47 48 52 53 54 57 60 62 65 70 72 64 57 53 49 50 50 49 45 50 51 46 47 46 55 53 50
54 51 49 42 39 40 43 47 48 49 50 49 49 52 56 59 62 65 68 68 63 51 49 49 50 52 53 55 54 52 46 42 39 48 55 61 54 64
54 51 46 45 44 45 49 50 51 50 48 48 48 53 59 60 64 63 56 57 55 50 48 49 51 51 51 52 48 53 45 39 41 40 45 55 57 61
57 53 48 48 50 52 52 50 47 43 40 45 47 51 51 48 51 50 54 53 52 53 52 54 57 56 56 57 56 56 52 48 47 40 38 50 55 59
60 58 55 54 56 56 56 51 44 40 38 38 38 37 39 43 46 49 49 51 52 55 58 61 62 64 66 63 59 60 57 57 56 54 49 47 47 50
65 62 61 60 62 59 61 55 44 43 41 40 40 39 40 44 48 51 52 53 55 56 56 60 63 64 68 70 71 66 62 60 58 54 52 49 46 43
74 69 67 67 67 68 65 55 45 41 38 40 41 42 45 49 53 55 57 54 55 58 60 63 65 69 70 71 74 72 70 64 57 54 52 50 50 50
80 78 77 75 75 71 60 47 40 39 40 42 44 50 52 56 57 60 61 59 58 58 62 66 68 65 63 69 72 70 66 66 64 59 56 55 55 52
89 88 87 84 78 68 54 44 41 39 44 44 50 55 57 59 59 58 57 59 61 61 62 60 60 64 64 66 67 68 70 71 73 71 65 60 59 58
97 93 89 83 73 62 53 48 46 43 46 45 54 59 60 58 59 58 59 60 61 57 56 56 59 65 66 66 66 68 69 69 72 72 72 73 73 69
93 89 86 83 72 62 56 55 52 49 51 48 53 58 60 62 62 59 57 56 55 54 54 56 58 66 63 66 70 73 75 73 72 74 75 74 73 74
92 88 86 83 76 65 61 61 60 56 57 54 57 62 62 64 63 56 55 52 50 50 51 54 57 60 60 66 72 75 78 77 76 76 76 78 77 77
93 94 86 84 79 78 74 72 66 60 60 60 62 63 63 71 64 54 52 51 49 49 55 56 53 53 59 69 76 75 79 83 84 82 82 82 83 83
92 92 89 87 86 87 87 82 72 64 64 66 61 68 80 75 63 58 52 50 51 53 50 49 50 57 66 79 78 76 79 84 84 83 84 85 85 84
98 98 98 95 94 93 92 89 81 71 66 66 64 69 67 61 58 58 61 65 60 61 64 63 60 69 81 77 67 65 69 69 68 68 67 67 67 68
98 98 97 95 94 94 95 94 86 78 71 68 68 67 62 60 64 68 70 74 72 74 77 74 72 74 75 67 63 65 64 63 62 61 62 62 64 66
97 95 95 93 94 94 93 95 92 82 73 68 68 60 64 77 81 79 81 79 82 89 84 75 72 79 75 65 60 63 62 60 61 61 60 60 61 61

GFSNE_prec_cthk_102.txt.gz
RH
91 87 82 71 65 60 57 57 57 55 52 55 56 60 55 48 45 44 42 42 46 46 43 49 50 55 55 52 51 49 48 50 54 54 53 48 42 46
85 76 67 69 64 59 59 56 54 52 54 53 51 50 48 45 42 39 41 41 45 45 48 50 53 55 54 58 55 49 48 56 56 57 52 47 45 50
74 71 64 60 58 60 58 52 48 47 47 47 45 44 43 41 40 40 43 45 47 48 51 52 59 59 59 59 58 50 49 56 56 56 53 51 50 52
72 63 61 66 62 55 51 44 42 42 42 40 38 39 39 39 41 43 45 46 47 52 54 58 62 61 63 63 58 43 43 46 51 55 57 58 54 49
63 63 62 60 60 53 47 43 41 39 38 36 38 39 40 40 43 45 46 46 51 53 57 62 63 64 64 65 48 40 38 38 41 51 56 64 56 44
69 68 62 62 59 55 49 41 39 39 39 39 41 41 42 45 45 46 46 48 50 54 57 61 66 60 56 46 43 41 39 42 50 58 60 65 47 40
72 71 64 62 60 54 50 41 39 41 40 42 44 44 45 46 46 49 51 53 55 58 62 60 54 49 41 44 47 46 47 47 52 63 74 66 51 49
65 62 62 61 57 53 49 43 42 44 50 49 50 48 43 44 50 51 54 58 59 52 46 43 45 43 45 48 49 51 51 52 54 67 64 71 73 59
60 61 61 60 57 55 51 45 45 48 50 52 49 46 43 45 51 54 55 51 45 48 44 41 44 45 48 49 47 48 48 51 45 45 59 65 66 75
63 62 62 63 61 57 52 51 52 54 51 48 43 44 44 45 48 46 46 45 46 49 47 48 49 51 53 54 54 53 52 52 49 42 47 59 69 66
69 69 68 68 65 60 57 56 61 61 50 42 39 43 42 44 44 45 42 43 47 49 52 56 57 57 61 62 61 59 58 57 55 52 47 42 50 56
80 76 73 71 67 64 64 66 65 64 52 45 41 40 38 35 38 41 43 44 50 52 56 56 56 60 62 64 67 68 66 62 60 57 58 59 53 55
92 88 84 78 74 71 71 72 70 67 57 48 43 39 37 35 39 43 47 51 56 57 58 57 60 64 68 70 70 74 72 69 67 62 60 58 57 53
96 96 95 91 87 84 81 79 76 67 58 51 43 38 38 37 43 49 52 59 60 58 59 60 66 69 65 63 66 67 67 66 63 63 63 57 54 53
94 97 98 97 94 93 91 88 80 70 62 51 42 40 42 44 50 55 57 60 61 61 60 61 67 65 62 60 62 64 66 67 68 68 66 62 60 57
91 95 99 98 98 97 96 90 82 73 61 48 43 45 45 50 55 57 59 59 60 62 66 68 62 59 60 63 62 61 66 68 68 69 68 69 68 67
94 98 98 97 98 98 94 87 84 71 58 49 48 47 47 55 58 58 58 60 63 63 61 60 60 57 56 60 61 58 65 72 75 73 72 73 73 71
97 97 98 95 98 98 96 89 80 69 59 52 52 54 51 58 61 60 63 64 63 61 60 57 56 55 55 57 60 56 64 73 76 77 76 75 75 75
97 98 98 98 99 98 98 90 83 73 62 60 58 60 58 59 62 63 64 65 63 59 58 56 55 54 58 58 56 55 70 74 77 80 81 79 78 78
96 98 98 97 98 98 97 96 85 79 72 68 67 66 64 62 64 65 68 74 64 57 58 59 55 52 55 54 55 66 76 74 77 80 80 80 80 80
98 98 98 98 98 97 98 96 94 92 82 73 73 69 67 64 68 73 76 76 62 59 59 53 58 61 63 66 68 79 78 72 70 65 62 63 65 67
98 98 98 98 97 98 98 98 98 97 92 84 77 69 67 63 69 72 67 62 60 61 63 67 73 75 76 75 79 81 72 67 64 60 57 55 54 55
98 98 98 98 98 98 98 97 98 98 97 90 83 73 70 67 71 70 60 66 72 78 85 84 86 88 83 77 83 80 72 66 63 60 58 55 55 55

GFSNE_prec_cthk_105.txt.gz
RH
86 84 84 88 88 85 77 71 65 61 58 57 56 54 53 52 49 46 43 42 39 39 42 44 43 44 46 48 46 50 48 44 44 47 50 52 54 53
91 89 90 85 83 76 69 63 59 61 59 54 52 51 50 48 45 43 40 38 38 40 43 44 44 47 47 49 50 52 49 41 47 50 51 56 54 50
94 90 93 79 71 67 64 60 60 58 54 51 47 46 45 43 41 39 39 39 40 43 43 43 45 49 52 50 55 53 50 39 48 50 54 56 51 50
86 88 91 84 69 64 57 61 59 56 50 44 44 43 41 39 39 40 41 43 47 46 45 45 48 50 52 55 57 53 40 36 40 46 55 53 53 55
81 90 91 87 78 65 65 63 58 53 48 45 42 40 40 40 43 44 46 47 48 47 48 50 51 52 52 56 57 42 36 36 35 43 50 57 59 62
83 89 90 90 86 73 65 62 61 57 49 42 42 41 43 44 45 47 47 49 49 48 51 53 53 54 52 53 41 38 36 35 33 46 56 59 62 64
76 84 85 83 82 81 72 65 63 58 54 45 45 44 45 46 48 49 51 50 50 52 53 54 53 48 43 39 37 39 39 42 39 54 68 77 73 68
66 75 82 87 89 88 83 71 65 58 54 46 44 48 50 49 51 48 51 50 53 56 52 46 40 38 36 40 39 42 43 46 47 54 71 79 81 70
66 70 70 70 72 76 80 68 65 61 54 49 49 54 53 49 48 52 53 54 55 49 41 38 34 37 38 43 43 41 43 43 45 48 58 80 83 76
64 68 67 68 68 70 69 67 67 61 55 53 53 55 51 50 49 53 57 54 50 44 43 43 40 44 46 48 46 46 48 46 47 43 40 58 74 77
68 70 75 74 72 72 71 74 69 65 61 59 60 59 54 50 51 53 52 47 48 45 44 48 49 54 54 54 55 54 54 54 54 53 47 46 59 67
72 75 77 81 85 78 75 75 73 73 67 64 62 57 55 50 52 51 53 46 45 43 46 53 57 56 57 57 59 60 61 60 58 58 56 57 52 50
70 76 82 90 91 90 86 82 82 77 71 68 61 61 55 52 44 42 44 42 44 45 52 61 59 58 58 61 66 68 71 72 70 68 65 61 58 55
73 77 84 92 95 96 91 94 90 84 81 76 69 67 60 54 47 43 40 43 47 53 59 62 63 63 66 65 61 64 65 66 69 66 66 65 61 58
79 92 88 95 96 95 97 98 97 94 92 84 76 70 64 56 50 44 41 44 53 59 64 62 65 68 69 63 59 60 63 66 68 69 69 65 60 60
73 87 87 93 95 95 98 98 98 98 96 84 78 73 66 58 50 44 45 52 57 63 65 63 67 73 68 62 61 60 58 60 63 67 68 69 69 65
71 83 97 89 91 98 98 98 98 97 97 89 82 75 65 57 50 46 49 56 60 63 63 63 73 72 65 61 60 61 59 58 61 69 72 71 71 71
77 73 73 83 91 95 98 97 98 98 96 87 80 70 61 54 50 50 52 60 62 64 65 65 69 70 66 61 57 58 60 59 63 72 74 75 74 74
74 72 76 81 90 95 94 97 97 98 98 89 79 71 62 57 54 54 58 63 65 67 66 63 66 68 68 63 58 56 56 56 63 74 76 79 79 77
81 81 87 87 91 96 95 98 98 98 98 88 82 76 67 62 62 57 61 63 65 67 67 67 65 61 62 67 62 56 54 63 73 78 81 80 78 78
88 83 95 95 97 98 98 98 98 98 97 91 89 79 75 72 69 67 64 63 67 69 73 75 62 57 63 64 64 62 66 74 78 82 81 76 72 68
94 91 96 98 98 98 98 98 98 98 97 97 92 82 80 76 74 69 67 69 74 78 79 70 64 62 60 61 71 78 80 83 84 83 78 68 60 57
97 97 98 98 98 98 97 97 98 97 98 98 97 90 85 79 75 69 67 73 75 74 66 62 61 64 75 87 88 86 84 91 86 81 77 66 59 57

GFSNE_prec_cthk_111.txt.gz
RH
87 93 96 96 97 97 92 97 99 98 96 95 95 93 83 77 72 63 62 58 55 51 47 45 42 38 37 39 40 38 37 36 38 36 36 31 31 38
93 94 94 98 98 93 88 86 92 94 92 95 93 85 81 80 74 67 61 55 52 48 43 39 38 37 37 38 39 39 40 40 38 36 31 26 32 37
90 92 93 94 93 91 90 89 93 96 93 97 90 83 81 77 69 62 55 53 47 43 39 39 38 38 39 37 39 40 41 40 39 33 24 26 35 39
78 79 83 91 95 98 91 95 96 98 97 87 82 79 78 74 69 63 52 44 42 41 40 38 38 39 39 39 41 42 40 40 36 24 23 30 36 40
67 73 75 76 81 88 95 98 98 98 98 91 92 84 80 76 73 68 52 45 45 44 41 40 40 40 41 40 41 42 40 35 24 24 24 34 37 43
55 57 61 66 74 77 86 87 96 98 95 97 95 91 92 89 86 78 63 51 49 48 44 43 43 42 40 40 42 40 35 25 23 24 27 38 43 50
37 41 46 51 54 61 72 81 86 89 94 96 98 97 94 94 91 86 79 69 55 54 47 49 46 46 43 42 40 34 26 25 24 25 33 41 53 62
33 36 39 43 47 52 55 58 72 73 82 86 93 97 95 96 97 90 81 69 62 55 56 53 48 48 45 41 36 28 27 28 29 30 35 49 52 67
34 36 41 46 49 53 57 61 59 71 75 79 78 91 88 95 98 90 83 76 63 58 55 52 53 50 42 34 29 28 29 30 31 31 34 50 56 66
32 36 40 44 52 57 60 63 66 70 73 78 90 87 92 90 89 85 80 72 68 62 60 57 54 44 40 34 34 35 33 35 36 34 33 43 56 66
35 39 43 47 49 55 59 68 76 74 75 76 81 79 87 79 76 75 72 65 64 63 63 61 54 48 42 38 38 40 39 43 43 43 39 38 51 64
35 40 46 51 58 64 68 73 74 79 87 97 92 97 87 85 81 78 73 68 67 64 65 63 55 50 44 43 45 46 48 48 49 49 48 44 43 50
38 40 44 55 66 63 74 77 81 86 92 88 90 91 89 91 85 81 78 71 71 68 66 60 57 52 49 49 49 50 52 56 61 59 57 53 51 49
43 45 52 60 65 72 72 73 81 82 94 91 93 92 95 95 90 83 81 78 76 69 70 66 55 53 53 54 51 54 58 61 68 67 66 65 63 60
49 54 59 64 71 73 76 74 88 90 95 88 93 98 99 98 95 84 81 81 80 75 74 68 61 57 58 56 55 64 62 57 63 66 68 70 69 66
48 52 61 67 73 76 78 81 78 81 91 88 98 99 99 98 97 89 81 78 73 71 69 66 65 61 60 57 63 68 61 57 61 65 64 62 66 71
50 55 60 67 74 78 80 80 79 95 98 98 98 98 96 95 97 91 83 78 73 71 70 65 64 62 60 61 70 67 64 63 63 61 63 62 61 66
50 60 66 69 72 78 82 81 82 85 95 86 94 98 97 98 98 93 85 82 82 79 72 65 62 63 62 67 73 70 70 68 66 62 60 59 62 67
56 62 70 73 73 76 83 83 83 84 86 98 98 98 97 95 97 97 97 95 84 75 68 63 60 62 65 70 73 71 75 72 67 63 60 59 63 69
60 62 70 74 73 74 78 85 85 83 86 95 97 96 98 97 97 97 97 91 79 73 66 62 61 65 68 72 72 71 72 75 70 65 62 67 63 69
59 59 70 75 73 74 78 82 84 85 88 86 85 88 94 93 95 97 96 85 76 64 63 65 65 64 67 72 74 73 72 75 74 71 67 70 73 78
61 59 63 75 76 76 79 83 84 85 86 86 85 89 91 93 96 97 92 83 71 67 66 65 65 67 74 74 72 71 68 68 68 70 69 71 78 84
62 64 65 71 78 78 79 83 88 89 90 90 89 87 89 93 97 97 89 78 71 70 66 69 69 71 75 73 73 76 77 73 68 65 73 83 84 88

GFSNE_prec_cthk_114.txt.gz
RH
95 95 93 92 93 95 94 94 96 97 96 90 95 95 96 95 98 94 89 86 78 68 60 58 49 45 43 40 35 33 32 31 32 33 33 32 28 23
93 93 92 94 96 97 96 95 99 98 94 90 91 92 97 98 97 91 92 86 80 70 62 57 48 47 46 40 36 35 33 33 33 34 34 27 22 25
87 93 94 94 94 94 94 94 92 99 89 91 89 97 96 95 95 93 92 87 82 75 65 57 51 47 42 39 36 35 33 33 34 35 30 22 21 27
78 78 79 80 78 77 78 80 85 88 98 95 93 95 97 98 94 96 91 88 82 74 63 60 52 45 42 43 39 36 34 35 35 30 22 20 24 28
54 54 56 59 60 63 67 72 77 84 88 93 89 95 95 95 96 98 95 92 85 76 71 65 58 50 44 45 51 44 44 44 33 23 20 22 28 32
35 38 41 43 48 51 55 60 66 70 72 80 85 92 90 92 97 98 97 98 97 88 81 74 68 61 57 51 53 45 46 37 24 21 21 27 32 40
26 28 30 33 36 39 43 45 49 56 63 70 73 77 83 90 89 95 95 98 97 91 87 80 76 71 65 57 59 58 42 30 24 24 24 29 37 48
18 20 24 27 31 35 39 43 46 51 55 58 71 64 71 79 87 95 92 98 96 91 80 74 67 63 62 63 61 51 41 29 28 29 27 34 37 49
21 21 22 25 29 32 36 40 44 52 57 61 66 66 70 78 78 76 95 96 92 90 86 77 73 68 62 59 51 40 35 31 33 30 28 35 41 49
20 22 25 27 30 35 40 45 48 52 60 65 72 79 82 80 89 82 90 93 90 86 81 73 67 63 62 59 45 38 35 36 36 33 31 31 42 52
15 19 21 22 26 34 39 43 49 57 68 70 72 74 87 82 97 94 98 98 92 84 77 68 66 62 60 53 46 41 43 40 41 40 37 35 40 54
19 20 22 26 30 36 45 47 48 50 65 81 77 73 98 78 80 83 86 86 82 82 78 71 70 67 58 50 48 48 48 48 47 44 43 40 38 50
24 24 25 30 34 39 49 56 55 65 65 70 88 90 86 94 98 89 98 97 94 88 83 77 73 68 60 49 50 52 53 52 50 51 49 47 44 45
22 26 29 32 36 44 49 59 68 71 78 75 74 77 91 97 98 98 98 97 99 90 89 84 76 71 65 59 56 59 57 58 58 59 59 58 57 53
29 28 27 32 37 42 51 60 68 77 75 83 82 96 92 91 98 98 96 94 96 95 93 89 82 71 62 61 61 62 63 64 58 59 64 67 64 63
30 30 34 37 40 50 57 65 72 83 83 84 85 84 95 98 93 91 98 96 98 97 94 92 84 76 65 62 64 68 72 65 60 60 64 63 65 67
35 36 39 43 45 53 63 70 73 86 87 81 92 91 89 94 87 90 92 91 97 96 93 93 82 75 67 67 69 74 74 65 64 60 60 64 64 61
36 39 43 48 53 60 67 71 74 80 85 85 88 90 92 97 97 96 97 95 97 92 90 85 77 78 73 72 71 76 74 68 69 67 63 62 62 60
37 40 47 52 55 63 71 75 77 81 84 85 83 93 97 98 97 96 97 97 97 95 92 85 81 76 69 71 74 79 76 71 72 71 64 63 64 63
40 42 49 54 57 62 71 75 78 80 84 86 85 86 95 97 92 94 96 94 96 93 90 88 84 77 72 72 76 82 78 74 78 75 67 63 62 67
48 47 51 56 58 60 67 75 78 81 84 90 90 87 86 94 94 98 97 97 97 97 97 89 75 73 72 70 72 80 78 77 77 74 72 69 66 69
53 53 53 58 61 61 64 74 75 78 81 85 89 90 90 95 95 98 97 95 97 97 93 81 79 75 70 66 71 80 82 79 77 76 74 75 76 72
57 57 56 61 63 63 66 73 77 78 81 89 90 89 89 90 94 95 94 93 97 96 90 80 75 72 69 67 72 78 81 79 76 74 70 67 71 78

GFSNE_prec_cthk_117.txt.gz
RH
95 92 91 93 91 92 97 98 98 94 88 86 92 96 95 92 94 96 97 98 98 95 90 81 80 73 65 57 50 49 47 46 38 33 31 28 28 27
95 94 93 89 90 96 93 95 95 96 90 84 87 88 90 89 91 92 96 98 97 95 92 86 79 74 64 57 56 51 50 44 36 34 31 29 29 23
98 94 85 85 84 87 88 87 86 88 82 84 82 85 83 88 89 92 92 96 95 94 95 89 82 76 66 60 58 55 51 44 39 34 32 31 25 24
87 81 74 70 69 67 66 67 67 67 68 66 65 70 75 78 82 89 89 88 91 94 94 91 85 78 70 65 62 59 51 47 41 37 40 33 31 26
58 54 52 50 46 45 46 47 52 54 56 57 59 62 65 69 76 78 86 86 91 91 94 96 89 82 79 70 67 62 56 51 50 44 37 36 26 27
26 26 27 28 29 32 34 34 36 38 41 45 50 52 59 65 70 71 77 79 86 85 91 93 93 90 83 79 73 69 62 58 49 45 39 33 27 32
17 19 20 22 25 27 28 30 32 34 38 43 44 48 53 57 68 66 72 76 85 84 92 97 97 90 87 80 72 69 64 60 55 43 32 28 35 36
15 16 18 19 21 23 26 29 34 34 36 43 46 48 50 54 72 71 76 89 75 78 89 96 97 91 86 78 70 65 60 55 46 33 33 34 38 42
14 15 15 16 18 18 19 23 27 32 35 41 45 46 57 64 66 69 73 97 89 81 87 90 93 87 82 77 73 68 62 50 36 34 35 35 41 45
16 17 17 17 16 19 20 21 22 28 34 39 43 44 51 65 68 77 83 93 95 91 97 94 93 89 83 75 73 68 57 38 33 35 35 35 42 45
18 18 20 23 23 22 23 26 27 28 32 42 47 55 54 61 87 91 87 85 94 92 86 93 98 89 82 74 68 62 46 36 34 39 39 40 40 44
20 19 18 18 24 25 27 27 26 30 33 40 47 57 62 63 66 72 96 99 98 99 99 99 99 91 85 76 67 55 44 41 43 46 48 47 42 42
23 21 21 20 19 19 21 24 30 33 39 43 51 55 68 69 84 92 91 88 92 93 91 99 93 87 85 72 67 53 47 48 50 53 53 49 43 41
27 24 24 23 24 22 22 24 31 38 42 47 54 68 81 84 86 88 98 98 98 98 94 86 87 91 91 80 57 56 53 55 57 59 58 54 51 45
26 25 25 27 26 27 30 33 38 44 51 55 60 72 83 94 88 84 86 93 96 98 98 97 97 98 92 86 71 60 60 63 64 66 65 65 60 56
27 25 24 26 28 31 34 36 43 53 61 65 68 77 87 86 91 95 98 98 96 97 97 97 98 97 84 80 71 63 66 69 72 68 67 69 66 63
33 30 27 26 28 32 35 40 49 59 65 72 79 88 90 87 96 95 97 97 96 98 98 98 98 98 95 76 65 65 70 75 75 70 66 66 63 62
36 35 33 34 33 34 38 42 54 65 72 76 78 87 85 87 96 94 91 97 99 97 97 96 97 98 98 79 65 66 76 79 78 71 66 65 65 64
36 36 36 38 39 37 42 46 54 68 74 77 81 79 80 85 96 97 96 96 93 92 93 94 97 97 97 83 68 67 81 83 78 73 70 66 64 62
36 37 39 43 45 41 44 50 55 66 73 77 80 85 85 83 81 90 97 98 97 95 95 94 95 97 89 82 76 80 86 83 79 76 74 71 64 65
35 38 43 46 48 44 46 52 57 64 73 76 79 84 88 86 84 94 97 97 97 97 96 96 96 96 95 87 78 80 88 84 83 79 78 71 66 64
37 42 46 50 52 48 49 55 60 65 73 76 76 82 90 89 87 95 97 97 97 97 96 95 96 92 91 82 77 84 90 87 85 83 82 78 72 70
41 46 51 54 54 51 53 58 62 67 73 75 79 84 88 89 90 95 98 95 97 97 97 97 96 91 84 82 83 85 89 85 85 85 82 78 75 79

GFSNE_prec_cthk_120.txt.gz
RH
94 95 97 96 98 98 97 97 93 87 80 83 87 88 87 85 82 81 80 82 78 83 84 90 86 86 84 81 78 68 63 57 51 47 43 42 38 29
97 98 98 97 96 92 87 82 84 84 81 79 75 72 70 71 74 70 71 71 74 77 81 85 85 86 82 83 77 71 64 59 55 52 50 46 38 32
97 96 94 91 87 83 78 78 78 75 70 66 65 62 59 60 60 62 66 74 73 75 77 81 82 79 80 82 76 72 68 65 60 58 54 50 41 35
93 89 88 83 77 74 70 74 66 61 57 53 52 51 52 53 56 58 62 66 70 73 76 77 80 81 77 78 74 72 73 66 67 60 61 52 41 33
81 75 71 65 60 55 51 46 44 42 40 40 39 40 42 45 48 51 55 61 66 71 73 75 79 81 79 80 73 78 75 71 65 63 57 49 43 32
30 27 26 26 26 26 27 28 29 30 30 31 32 36 37 39 44 48 54 57 63 64 77 71 76 83 83 84 82 83 81 73 71 64 62 55 41 36
14 14 14 15 16 18 20 21 24 27 27 28 28 27 29 31 34 40 47 50 59 60 66 80 90 81 85 95 92 87 84 80 71 64 58 46 39 35
11 12 13 13 14 15 17 21 24 25 27 28 30 32 32 33 33 35 42 52 50 49 71 84 80 86 98 96 96 94 93 82 73 67 59 44 40 32
14 14 15 16 18 20 20 19 21 22 25 27 32 34 35 36 40 41 45 46 54 56 69 84 91 91 93 92 93 92 95 86 79 69 54 39 35 35
18 19 20 21 22 21 22 25 25 26 22 25 27 29 35 43 45 47 46 50 61 86 97 90 77 90 89 92 95 88 85 82 77 65 45 37 35 37
23 23 23 25 25 23 24 23 21 19 21 23 25 28 29 34 44 48 54 58 61 68 72 93 98 95 99 93 92 94 87 82 80 57 40 37 36 38
23 22 22 22 22 22 24 25 24 22 25 22 22 23 29 32 41 50 62 71 88 82 97 98 97 94 93 99 99 95 94 86 76 50 39 38 40 42
22 23 24 23 23 23 24 28 31 31 29 29 29 31 33 39 47 55 60 86 75 81 83 90 91 99 98 98 98 97 88 79 59 44 44 46 48 49
26 26 26 24 22 23 25 28 28 30 30 31 36 39 43 44 58 66 71 85 82 98 96 98 93 98 98 98 97 97 90 78 56 52 53 54 55 52
30 32 33 30 31 29 28 26 26 29 32 38 40 46 52 54 60 68 96 92 98 97 98 98 98 99 97 97 96 81 86 70 58 59 63 61 60 56
32 33 31 31 30 30 28 28 31 33 37 42 47 52 57 60 68 75 94 90 89 96 97 98 93 93 98 96 95 89 68 64 62 67 70 69 67 63
35 32 31 29 28 30 33 34 32 33 38 45 53 57 61 71 83 87 88 91 95 95 98 97 97 97 97 98 97 95 70 65 68 74 75 74 73 71
39 38 37 36 37 36 36 35 31 33 38 47 58 63 67 74 86 86 83 96 97 94 95 96 97 97 98 97 93 75 68 67 75 78 77 74 73 72
38 41 40 40 39 39 39 39 33 34 39 47 61 67 73 76 84 82 83 97 97 97 96 96 97 97 97 97 93 73 70 74 82 79 77 72 70 69
40 43 43 42 41 41 41 42 37 37 43 50 62 69 73 77 80 82 84 92 96 97 97 97 97 97 97 97 96 74 73 84 84 83 78 73 72 73
42 42 43 41 41 42 42 42 40 41 47 54 64 71 75 78 84 86 82 82 95 97 97 96 94 93 94 96 96 77 76 89 90 85 79 77 74 69
45 43 41 41 43 44 45 43 43 45 50 58 67 73 76 80 83 88 87 89 96 97 97 97 97 95 95 93 89 78 83 96 90 85 80 82 79 69
46 43 43 43 46 48 47 46 47 49 55 65 72 75 75 77 86 88 87 93 97 97 97 97 97 95 92 95 95 90 92 97 94 89 86 85 79 70

GFSNE_prec_cthk_123.txt.gz
RH
89 94 94 96 97 96 97 98 97 93 88 84 81 81 83 77 75 73 68 68 67 65 63 68 69 69 68 70 70 74 72 70 70 65 60 51 48 45
97 98 97 97 97 98 96 93 91 89 80 76 72 69 69 67 65 65 61 60 62 62 62 65 65 66 69 71 72 75 76 74 69 66 61 60 50 49
99 99 97 96 97 94 90 88 83 80 72 64 65 61 60 58 55 53 53 52 56 58 62 65 67 67 67 70 75 74 74 73 70 68 62 61 55 52
98 97 97 92 89 86 84 80 73 67 66 62 58 53 47 41 37 36 37 39 41 44 53 56 65 68 68 69 76 75 74 74 73 74 68 62 59 52
91 89 88 86 77 70 63 57 52 47 42 37 33 31 30 29 28 28 28 30 32 37 43 46 58 59 62 74 79 77 76 78 80 75 75 70 57 59
48 43 40 35 31 28 25 23 23 22 21 24 26 26 27 29 28 28 27 27 29 31 36 43 47 51 66 62 66 77 87 82 81 78 87 78 72 55
14 13 12 12 12 12 13 14 16 18 21 23 27 27 27 26 31 34 35 34 33 33 33 36 42 47 55 60 67 78 93 98 95 93 94 89 78 69
11 12 13 14 15 17 20 19 20 23 25 29 29 29 29 29 31 32 34 35 34 37 34 36 43 50 55 61 66 74 88 94 93 91 83 93 86 76
13 14 15 17 19 19 20 20 20 20 23 29 29 29 29 32 34 32 34 34 40 39 46 42 42 45 52 56 69 99 94 98 99 98 96 96 84 71
17 19 20 21 21 21 21 22 23 23 24 23 25 27 30 30 33 37 38 37 41 39 48 50 43 56 74 76 81 94 98 99 94 91 89 95 87 69
22 23 22 23 22 22 29 32 30 25 24 24 23 23 23 25 29 35 36 40 42 38 45 55 59 64 66 96 99 99 96 89 84 97 98 90 82 61
24 26 28 24 23 24 27 27 27 26 24 22 21 20 26 28 32 36 38 41 50 41 44 68 74 75 86 86 93 90 85 93 97 98 97 90 64 57
23 23 23 25 27 27 26 27 30 31 27 25 26 29 29 31 35 42 40 45 47 55 54 71 91 82 83 94 89 98 98 98 98 97 97 76 58 54
24 26 28 29 29 28 27 26 26 28 29 31 33 35 36 41 42 43 44 49 59 64 65 79 88 88 94 95 98 98 94 94 96 98 92 63 56 50
30 30 30 31 29 28 27 27 29 30 34 35 35 35 38 42 43 46 49 52 60 72 75 83 95 95 98 93 93 95 97 97 98 97 70 57 55 57
33 33 34 33 32 31 31 32 34 38 40 38 33 35 38 43 47 51 54 59 68 87 91 94 95 97 96 98 95 90 96 97 98 88 60 59 63 62
37 38 37 36 35 34 36 37 37 40 43 39 35 35 40 47 51 56 64 74 76 84 87 89 93 94 96 97 95 91 96 96 91 69 61 68 69 68
43 41 39 39 37 37 36 36 40 43 43 39 34 37 42 52 57 59 67 78 80 85 91 91 95 96 97 96 92 93 95 89 75 64 72 77 76 76
43 42 42 42 41 42 39 42 45 44 44 39 36 40 44 54 59 64 71 80 78 84 94 97 93 95 96 97 97 95 93 79 68 74 82 81 79 78
43 42 43 45 46 43 45 46 46 46 44 40 41 44 48 57 63 69 74 75 75 81 96 96 97 96 98 98 98 97 82 77 75 82 83 81 78 76
44 46 50 48 47 47 48 48 50 48 43 42 44 47 53 60 67 72 77 78 79 84 88 96 97 96 97 97 97 94 84 78 86 86 84 82 77 78
49 53 53 52 50 52 50 52 51 46 44 47 48 53 58 66 72 75 80 83 82 79 82 95 96 95 97 97 98 93 84 86 94 92 88 81 77 79
59 60 56 52 52 52 51 52 49 46 48 50 53 58 65 71 74 76 80 84 85 84 90 94 96 97 97 95 96 93 84 90 97 94 88 82 79 78

GFSNE_prec_cthk_129.txt.gz
RH
49 45 54 73 67 78 85 96 98 89 89 93 94 93 94 95 94 92 90 87 81 75 66 63 58 53 49 47 48 49 52 53 54 57 56 60 62 64
59 53 69 83 86 84 99 97 96 91 95 97 97 95 90 87 82 81 80 75 67 61 57 50 46 37 32 31 34 39 43 45 49 52 54 56 60 61
57 62 80 90 96 90 87 91 99 98 99 98 95 88 86 81 77 69 60 52 45 34 26 22 21 20 20 23 27 29 35 40 44 52 53 58 55 56
60 96 98 98 96 95 95 99 99 94 92 84 85 84 74 56 44 33 27 19 15 14 14 15 17 20 22 23 24 26 30 36 43 44 55 57 60 64
90 98 99 99 99 99 99 99 97 92 82 67 52 38 29 20 14 13 14 15 16 18 19 19 19 19 22 24 28 29 30 34 40 47 50 56 60 62
97 97 93 90 88 79 70 65 56 42 29 18 14 13 14 14 15 16 16 18 20 20 20 20 20 23 25 24 26 32 32 32 32 44 50 50 62 70
62 57 51 37 20 15 12 11 11 12 12 13 15 16 17 18 20 20 21 21 22 23 23 25 23 24 22 23 27 28 31 33 34 36 46 48 63 69
30 18 11 10 10 10 11 12 14 16 18 19 21 21 21 21 22 24 26 27 32 29 32 30 29 26 21 24 24 30 34 35 38 36 42 51 54 64
10 11 10 11 12 12 14 16 19 21 23 24 23 23 23 23 26 28 29 31 33 31 30 32 31 27 27 28 27 29 36 39 42 44 46 45 54 56
11 12 12 12 13 15 18 20 22 23 22 22 24 23 25 28 32 33 33 33 34 33 33 38 32 31 34 33 36 37 42 44 45 46 47 49 48 72
12 12 13 15 17 18 20 22 23 24 26 27 27 28 28 29 33 36 35 36 37 39 33 40 36 37 35 37 37 44 55 54 52 51 55 68 73 69
13 14 16 17 18 21 23 26 29 31 31 30 31 31 32 34 39 40 39 40 42 42 40 44 39 44 44 43 44 49 54 55 56 57 66 78 85 81
15 18 20 22 25 28 30 32 35 38 33 33 33 34 36 37 34 33 35 36 40 41 45 48 43 47 53 51 49 56 58 60 62 66 83 83 92 89
24 27 30 33 36 37 37 37 41 37 35 33 31 30 30 29 29 32 33 36 40 45 49 53 51 55 57 55 56 66 74 79 81 76 88 93 96 93
31 36 39 41 40 38 38 36 35 31 30 30 33 33 32 33 34 37 36 38 44 50 56 59 60 58 60 62 61 66 76 85 91 92 93 96 95 92
33 37 38 38 38 39 37 36 33 33 34 35 38 38 38 39 41 42 41 43 46 53 59 59 62 64 68 68 70 74 84 87 89 92 94 95 97 90
35 38 39 40 40 40 38 37 37 37 37 39 41 41 45 46 46 47 49 50 53 59 62 62 68 68 69 70 75 83 90 92 93 94 93 92 85 78
40 41 41 44 42 38 39 39 39 40 43 43 43 48 51 53 54 53 54 54 57 55 60 64 70 71 78 83 80 84 90 94 97 97 97 82 75 71
46 47 46 45 41 42 43 44 44 47 46 48 53 57 62 62 61 56 53 55 54 57 63 67 75 74 87 89 90 89 91 96 96 98 92 78 78 74
52 52 53 48 45 46 47 49 51 51 57 58 63 66 68 67 58 57 52 52 57 61 68 73 76 76 87 91 94 93 95 94 91 91 83 79 85 84
65 59 51 49 49 51 57 58 59 63 60 64 66 68 69 63 61 55 53 57 62 66 75 80 78 79 90 94 93 92 94 89 89 82 82 92 91 85
63 58 56 56 55 65 65 63 67 64 64 61 65 68 68 63 55 55 58 61 67 73 78 85 84 86 92 95 96 97 94 89 88 84 96 95 93 89
64 63 63 67 74 72 67 70 69 65 62 61 62 69 66 56 57 60 63 69 74 75 82 84 85 89 88 95 97 97 96 90 91 97 96 95 88 79

GFSNE_prec_cthk_135.txt.gz
RH
74 84 89 93 93 90 87 81 73 66 58 59 60 65 77 85 93 90 95 98 95 96 97 95 93 95 93 93 85 72 59 49 33 24 23 24 27 34
69 76 82 83 82 79 74 72 66 65 66 63 59 85 92 91 93 98 98 99 97 97 98 96 92 82 67 51 37 21 12 11 11 12 13 15 20 28
77 80 80 79 79 77 67 69 66 64 67 64 70 87 93 94 95 98 96 98 98 98 94 77 55 39 29 17 11 12 14 16 17 17 19 21 24 26
68 71 67 63 63 61 62 65 62 63 70 74 84 98 98 99 95 97 94 89 78 51 39 24 19 14 14 16 17 17 18 20 22 23 23 25 25 25
65 65 64 63 60 61 64 64 71 87 98 98 98 97 96 94 89 68 52 39 27 25 23 22 22 19 19 20 20 21 23 23 24 24 23 24 24 24
64 65 62 60 63 75 83 78 87 91 86 70 58 50 48 48 41 32 21 20 17 20 22 23 22 22 21 21 22 23 23 23 23 23 23 24 23 23
77 74 73 72 77 88 75 71 65 55 45 35 30 28 24 18 16 16 19 22 24 25 26 25 23 22 22 22 23 24 26 24 23 23 23 23 23 22
60 50 53 58 61 55 49 44 37 25 13 10 11 12 15 18 20 23 25 28 29 28 27 26 25 25 25 25 27 28 28 31 33 31 29 25 21 21
41 39 37 32 31 31 26 14 11 11 13 15 17 19 21 22 23 25 27 32 34 28 31 32 28 27 27 28 30 31 35 36 33 29 27 25 29 29
12 12 12 12 12 12 12 13 14 15 17 18 20 21 22 24 26 28 29 31 31 30 33 32 31 30 27 28 30 30 31 31 31 30 29 26 30 33
12 12 12 12 12 12 13 14 16 18 20 21 23 26 27 28 29 30 31 33 35 35 33 37 35 32 28 26 29 33 33 35 35 34 31 30 34 38
13 14 15 16 17 19 21 24 25 27 29 30 32 32 33 34 34 35 36 38 38 36 36 36 34 34 33 28 33 35 38 40 39 40 38 40 46 50
22 22 23 23 24 25 27 28 29 31 33 34 34 34 35 35 35 36 38 40 40 39 39 43 41 38 39 39 36 43 44 43 44 45 46 54 57 63
23 23 23 23 22 22 24 25 28 31 33 35 35 35 35 35 35 36 37 39 41 41 42 46 45 45 46 45 46 49 53 53 53 56 59 61 64 64
21 20 20 20 20 21 24 27 31 34 36 37 35 36 37 38 38 40 40 42 43 46 48 51 51 51 52 52 52 59 62 64 65 65 63 58 59 64
21 22 22 23 26 32 32 35 38 40 39 37 38 41 43 44 44 44 46 47 48 50 53 56 57 58 58 63 67 68 69 67 67 62 61 64 67 72
28 28 28 34 39 38 40 43 44 43 42 43 42 43 47 52 51 53 54 57 57 56 58 60 64 65 67 67 69 73 69 70 65 64 66 72 81 76
38 43 49 43 40 41 46 47 44 42 43 46 49 53 56 55 59 63 64 63 62 62 61 63 64 64 66 70 67 72 69 73 73 72 78 84 77 76
58 52 41 39 40 44 47 47 44 45 49 53 57 63 62 66 69 68 68 71 70 69 67 66 65 66 65 66 65 71 74 77 77 81 91 88 77 78
47 42 38 39 42 44 45 42 45 53 58 61 67 66 68 68 67 70 73 73 72 69 63 63 60 63 66 69 69 72 79 84 83 90 93 86 79 91
43 40 43 49 47 45 45 52 60 63 63 67 68 72 70 67 65 69 71 73 68 63 58 58 63 67 71 74 75 75 86 93 89 91 93 94 95 97
45 46 51 51 49 51 58 63 64 68 69 70 74 73 71 65 61 63 69 70 62 57 59 63 68 71 75 81 79 84 93 95 92 90 97 97 97 97
52 55 54 51 56 61 65 65 69 71 73 73 75 74 66 60 55 59 68 63 58 62 65 69 72 76 79 83 83 92 93 95 95 97 97 97 97 97